| time (UTC) | temp F | wind direction | speed MPH | gust MPH | rain 1hr in | rain 24hr in | rain mn in | humidity % | barometer mb |
| 20260903165605 | 69 | 145 | 2.0 | 5.0 | 0.00 | 0.00 | 0.00 | 17 | 1011.2 |
| 20260903165504 | 69 | 157 | 2.0 | 4.0 | 0.00 | 0.00 | 0.00 | 17 | 1011.2 |
| 20260903165405 | 69 | 163 | 1.0 | 4.0 | 0.00 | 0.00 | 0.00 | 17 | 1011.2 |
| 20260903165306 | 69 | 194 | 2.0 | 6.0 | 0.00 | 0.00 | 0.00 | 17 | 1011.2 |
| 20260903165104 | 69 | 234 | 2.0 | 7.0 | 0.00 | 0.00 | 0.00 | 16 | 1011.2 |
| 20260903165005 | 69 | 235 | 1.0 | 7.0 | 0.00 | 0.00 | 0.00 | 16 | 1011.2 |
| 20260903164904 | 69 | 0 | 0.0 | 7.0 | 0.00 | 0.00 | 0.00 | 16 | 1011.3 |
| 20260903164805 | 69 | 245 | 1.0 | 7.0 | 0.00 | 0.00 | 0.00 | 16 | 1011.2 |
| 20260903164704 | 69 | 257 | 1.0 | 7.0 | 0.00 | 0.00 | 0.00 | 16 | 1011.3 |
| 20260903164604 | 69 | 261 | 1.0 | 8.0 | 0.00 | 0.00 | 0.00 | 16 | 1011.3 |
| 20260903164504 | 69 | 261 | 1.0 | 8.0 | 0.00 | 0.00 | 0.00 | 16 | 1011.4 |
| 20260903164404 | 69 | 257 | 4.0 | 8.0 | 0.00 | 0.00 | 0.00 | 16 | 1011.3 |
| 20260903164304 | 69 | 260 | 4.0 | 8.0 | 0.00 | 0.00 | 0.00 | 16 | 1011.3 |
| 20260903164204 | 69 | 0 | 0.0 | 8.0 | 0.00 | 0.00 | 0.00 | 16 | 1011.3 |
| 20260903164104 | 69 | 0 | 0.0 | 8.0 | 0.00 | 0.00 | 0.00 | 16 | 1011.3 |
| 20260903164005 | 69 | 0 | 0.0 | 8.0 | 0.00 | 0.00 | 0.00 | 15 | 1011.3 |
| 20260903163904 | 69 | 266 | 4.0 | 8.0 | 0.00 | 0.00 | 0.00 | 15 | 1011.3 |
| 20260903163804 | 69 | 264 | 4.0 | 8.0 | 0.00 | 0.00 | 0.00 | 15 | 1011.4 |
| 20260903163705 | 69 | 261 | 3.0 | 8.0 | 0.00 | 0.00 | 0.00 | 16 | 1011.5 |
| 20260903163604 | 69 | 261 | 2.0 | 8.0 | 0.00 | 0.00 | 0.00 | 15 | 1011.4 |
| 20260903163504 | 69 | 261 | 2.0 | 8.0 | 0.00 | 0.00 | 0.00 | 15 | 1011.4 |
| 20260903163404 | 69 | 262 | 4.0 | 8.0 | 0.00 | 0.00 | 0.00 | 15 | 1011.4 |
| 20260903163304 | 69 | 263 | 4.0 | 8.0 | 0.00 | 0.00 | 0.00 | 15 | 1011.4 |
| 20260903163204 | 70 | 263 | 3.0 | 8.0 | 0.00 | 0.00 | 0.00 | 15 | 1011.5 |
| 20260903163104 | 69 | 263 | 6.0 | 8.0 | 0.00 | 0.00 | 0.00 | 15 | 1011.4 |
| 20260903162604 | 69 | 277 | 3.0 | 8.0 | 0.00 | 0.00 | 0.00 | 16 | 1011.4 |
| 20260903162005 | 69 | 284 | 2.0 | 8.0 | 0.00 | 0.00 | 0.00 | 17 | 1011.3 |
| 20260903161904 | 69 | 281 | 4.0 | 9.0 | 0.00 | 0.00 | 0.00 | 17 | 1011.5 |
| 20260903161805 | 69 | 279 | 2.0 | 10.0 | 0.00 | 0.00 | 0.00 | 17 | 1011.5 |
| 20260903161704 | 69 | 277 | 2.0 | 10.0 | 0.00 | 0.00 | 0.00 | 16 | 1011.5 |
| 20260903161604 | 69 | 277 | 4.0 | 10.0 | 0.00 | 0.00 | 0.00 | 16 | 1011.5 |
| 20260903161504 | 69 | 277 | 4.0 | 10.0 | 0.00 | 0.00 | 0.00 | 16 | 1011.5 |
| 20260903161404 | 69 | 277 | 4.0 | 10.0 | 0.00 | 0.00 | 0.00 | 16 | 1011.5 |
| 20260903161304 | 69 | 271 | 4.0 | 10.0 | 0.00 | 0.00 | 0.00 | 16 | 1011.5 |
| 20260903161204 | 69 | 270 | 3.0 | 10.0 | 0.00 | 0.00 | 0.00 | 17 | 1011.6 |
| 20260903161004 | 69 | 270 | 4.0 | 10.0 | 0.00 | 0.00 | 0.00 | 17 | 1011.6 |
| 20260903160904 | 69 | 269 | 6.0 | 10.0 | 0.00 | 0.00 | 0.00 | 17 | 1011.6 |
| 20260903160804 | 69 | 269 | 5.0 | 8.0 | 0.00 | 0.00 | 0.00 | 17 | 1011.6 |
| 20260903160705 | 69 | 268 | 5.0 | 8.0 | 0.00 | 0.00 | 0.00 | 17 | 1011.7 |
| 20260903160604 | 69 | 273 | 3.0 | 5.0 | 0.00 | 0.00 | 0.00 | 17 | 1011.6 |
| 20260903160504 | 69 | 275 | 2.0 | 5.0 | 0.00 | 0.00 | 0.00 | 18 | 1011.6 |
| 20260903160405 | 69 | 282 | 1.0 | 5.0 | 0.00 | 0.00 | 0.00 | 18 | 1011.6 |
| 20260903160304 | 69 | 0 | 0.0 | 5.0 | 0.00 | 0.00 | 0.00 | 17 | 1011.7 |
| 20260903160204 | 69 | 289 | 2.0 | 5.0 | 0.00 | 0.00 | 0.00 | 17 | 1011.8 |
| 20260903160104 | 69 | 293 | 2.0 | 5.0 | 0.00 | 0.00 | 0.00 | 18 | 1011.7 |
| 20260903160004 | 69 | 0 | 0.0 | 5.0 | 0.00 | 0.00 | 0.00 | 18 | 1011.7 |
| 20260903155904 | 69 | 305 | 2.0 | 5.0 | 0.00 | 0.00 | 0.00 | 18 | 1011.7 |
| 20260903155804 | 69 | 305 | 2.0 | 5.0 | 0.00 | 0.00 | 0.00 | 18 | 1011.8 |
| 20260903155704 | 69 | 303 | 3.0 | 5.0 | 0.00 | 0.00 | 0.00 | 18 | 1011.8 |
| 20260903155604 | 69 | 303 | 3.0 | 5.0 | 0.00 | 0.00 | 0.00 | 18 | 1011.8 |
| 20260903155504 | 69 | 311 | 2.0 | 5.0 | 0.00 | 0.00 | 0.00 | 18 | 1011.8 |
| 20260903155404 | 69 | 309 | 2.0 | 5.0 | 0.00 | 0.00 | 0.00 | 18 | 1011.8 |
| 20260903155306 | 69 | 303 | 4.0 | 5.0 | 0.00 | 0.00 | 0.00 | 18 | 1011.8 |
| 20260903155205 | 69 | 303 | 3.0 | 5.0 | 0.00 | 0.00 | 0.00 | 18 | 1011.7 |
| 20260903155104 | 69 | 299 | 2.0 | 5.0 | 0.00 | 0.00 | 0.00 | 18 | 1011.8 |
| 20260903155004 | 69 | 296 | 2.0 | 5.0 | 0.00 | 0.00 | 0.00 | 18 | 1011.7 |
| 20260903154905 | 69 | 294 | 3.0 | 5.0 | 0.00 | 0.00 | 0.00 | 17 | 1011.8 |
| 20260903154804 | 69 | 303 | 2.0 | 4.0 | 0.00 | 0.00 | 0.00 | 16 | 1011.8 |
| 20260903154704 | 69 | 309 | 2.0 | 4.0 | 0.00 | 0.00 | 0.00 | 16 | 1011.8 |
| 20260903154605 | 69 | 0 | 0.0 | 4.0 | 0.00 | 0.00 | 0.00 | 16 | 1011.8 |
| 20260903154504 | 69 | 0 | 0.0 | 4.0 | 0.00 | 0.00 | 0.00 | 16 | 1011.8 |
| 20260903154404 | 69 | 228 | 1.0 | 2.0 | 0.00 | 0.00 | 0.00 | 15 | 1011.9 |
| 20260903154304 | 69 | 228 | 1.0 | 2.0 | 0.00 | 0.00 | 0.00 | 15 | 1012.0 |
| 20260903154204 | 69 | 0 | 0.0 | 2.0 | 0.00 | 0.00 | 0.00 | 16 | 1011.8 |
| 20260903154104 | 69 | 0 | 0.0 | 2.0 | 0.00 | 0.00 | 0.00 | 15 | 1011.8 |
| 20260903154004 | 69 | 211 | 1.0 | 2.0 | 0.00 | 0.00 | 0.00 | 15 | 1011.8 |
| 20260903153904 | 69 | 0 | 0.0 | 3.0 | 0.00 | 0.00 | 0.00 | 15 | 1011.8 |
| 20260903153804 | 69 | 0 | 0.0 | 3.0 | 0.00 | 0.00 | 0.00 | 15 | 1011.9 |
| 20260903153604 | 70 | 149 | 2.0 | 3.0 | 0.00 | 0.00 | 0.00 | 15 | 1011.9 |
| 20260903153504 | 70 | 0 | 0.0 | 3.0 | 0.00 | 0.00 | 0.00 | 16 | 1011.9 |
| 20260903153404 | 70 | 0 | 0.0 | 3.0 | 0.00 | 0.00 | 0.00 | 16 | 1011.9 |
| 20260903153304 | 70 | 0 | 0.0 | 3.0 | 0.00 | 0.00 | 0.00 | 16 | 1011.9 |
| 20260903153204 | 70 | 0 | 0.0 | 4.0 | 0.00 | 0.00 | 0.00 | 16 | 1011.9 |
| 20260903153104 | 70 | 136 | 1.0 | 4.0 | 0.00 | 0.00 | 0.00 | 17 | 1011.9 |
| 20260903153004 | 70 | 136 | 1.0 | 4.0 | 0.00 | 0.00 | 0.00 | 17 | 1011.9 |
| 20260903152904 | 70 | 135 | 1.0 | 4.0 | 0.00 | 0.00 | 0.00 | 17 | 1011.9 |
| 20260903152804 | 70 | 132 | 2.0 | 4.0 | 0.00 | 0.00 | 0.00 | 17 | 1011.9 |
| 20260903152704 | 70 | 0 | 0.0 | 4.0 | 0.00 | 0.00 | 0.00 | 17 | 1012.0 |
| 20260903152504 | 70 | 0 | 0.0 | 4.0 | 0.00 | 0.00 | 0.00 | 17 | 1012.0 |
| 20260903152404 | 69 | 122 | 1.0 | 4.0 | 0.00 | 0.00 | 0.00 | 18 | 1011.9 |
| 20260903152306 | 69 | 119 | 2.0 | 4.0 | 0.00 | 0.00 | 0.00 | 18 | 1012.0 |
| 20260903152204 | 69 | 113 | 1.0 | 4.0 | 0.00 | 0.00 | 0.00 | 19 | 1011.9 |
| 20260903152104 | 69 | 118 | 1.0 | 4.0 | 0.00 | 0.00 | 0.00 | 18 | 1011.9 |
| 20260903152004 | 69 | 114 | 2.0 | 4.0 | 0.00 | 0.00 | 0.00 | 18 | 1011.8 |
| 20260903151904 | 69 | 0 | 0.0 | 4.0 | 0.00 | 0.00 | 0.00 | 19 | 1012.0 |
| 20260903151804 | 68 | 117 | 2.0 | 4.0 | 0.00 | 0.00 | 0.00 | 18 | 1012.0 |
| 20260903151704 | 68 | 120 | 2.0 | 4.0 | 0.00 | 0.00 | 0.00 | 18 | 1012.0 |
| 20260903151604 | 68 | 0 | 0.0 | 4.0 | 0.00 | 0.00 | 0.00 | 19 | 1012.0 |
| 20260903151504 | 68 | 0 | 0.0 | 4.0 | 0.00 | 0.00 | 0.00 | 19 | 1011.9 |
| 20260903151404 | 68 | 109 | 1.0 | 4.0 | 0.00 | 0.00 | 0.00 | 19 | 1012.0 |
| 20260903151304 | 67 | 112 | 2.0 | 4.0 | 0.00 | 0.00 | 0.00 | 19 | 1011.9 |
| 20260903151204 | 67 | 118 | 2.0 | 4.0 | 0.00 | 0.00 | 0.00 | 19 | 1012.0 |
| 20260903151104 | 67 | 119 | 2.0 | 4.0 | 0.00 | 0.00 | 0.00 | 20 | 1011.9 |
| 20260903151004 | 67 | 125 | 2.0 | 4.0 | 0.00 | 0.00 | 0.00 | 20 | 1012.1 |
| 20260903150904 | 67 | 124 | 2.0 | 4.0 | 0.00 | 0.00 | 0.00 | 20 | 1012.0 |
| 20260903150804 | 67 | 119 | 1.0 | 4.0 | 0.00 | 0.00 | 0.00 | 21 | 1012.0 |
| 20260903150704 | 66 | 118 | 2.0 | 4.0 | 0.00 | 0.00 | 0.00 | 20 | 1012.0 |
| 20260903150604 | 66 | 124 | 2.0 | 4.0 | 0.00 | 0.00 | 0.00 | 20 | 1011.9 |
| 20260903150504 | 66 | 131 | 1.0 | 4.0 | 0.00 | 0.00 | 0.00 | 20 | 1012.0 |
| 20260903150404 | 66 | 0 | 0.0 | 3.0 | 0.00 | 0.00 | 0.00 | 21 | 1012.1 |
| 20260903150304 | 66 | 134 | 1.0 | 3.0 | 0.00 | 0.00 | 0.00 | 21 | 1012.1 |
| 20260903150204 | 66 | 136 | 2.0 | 3.0 | 0.00 | 0.00 | 0.00 | 21 | 1012.1 |
| 20260903150104 | 66 | 140 | 2.0 | 3.0 | 0.00 | 0.00 | 0.00 | 22 | 1012.0 |
| 20260903150004 | 65 | 145 | 2.0 | 3.0 | 0.00 | 0.00 | 0.00 | 22 | 1012.1 |
| 20260903145904 | 65 | 160 | 1.0 | 3.0 | 0.00 | 0.00 | 0.00 | 22 | 1012.0 |
| 20260903145804 | 65 | 0 | 0.0 | 3.0 | 0.00 | 0.00 | 0.00 | 22 | 1012.1 |
| 20260903145704 | 65 | 0 | 0.0 | 3.0 | 0.00 | 0.00 | 0.00 | 22 | 1012.0 |
| 20260903145604 | 65 | 0 | 0.0 | 3.0 | 0.00 | 0.00 | 0.00 | 22 | 1012.1 |
| 20260903145504 | 64 | 155 | 1.0 | 3.0 | 0.00 | 0.00 | 0.00 | 23 | 1012.1 |
| 20260903145404 | 64 | 143 | 2.0 | 3.0 | 0.00 | 0.00 | 0.00 | 23 | 1012.2 |
| 20260903145306 | 64 | 137 | 2.0 | 3.0 | 0.00 | 0.00 | 0.00 | 23 | 1012.1 |
| 20260903145205 | 64 | 0 | 0.0 | 3.0 | 0.00 | 0.00 | 0.00 | 23 | 1012.2 |
| 20260903145104 | 63 | 0 | 0.0 | 3.0 | 0.00 | 0.00 | 0.00 | 24 | 1012.1 |
| 20260903145004 | 63 | 0 | 0.0 | 4.0 | 0.00 | 0.00 | 0.00 | 24 | 1012.2 |
| 20260903144904 | 63 | 195 | 1.0 | 4.0 | 0.00 | 0.00 | 0.00 | 24 | 1012.2 |
| 20260903144805 | 63 | 216 | 1.0 | 4.0 | 0.00 | 0.00 | 0.00 | 25 | 1012.1 |
| 20260903144704 | 62 | 232 | 2.0 | 4.0 | 0.00 | 0.00 | 0.00 | 25 | 1012.1 |
| 20260903144604 | 62 | 240 | 2.0 | 4.0 | 0.00 | 0.00 | 0.00 | 24 | 1012.1 |
| 20260903144505 | 62 | 246 | 2.0 | 4.0 | 0.00 | 0.00 | 0.00 | 24 | 1012.1 |
| 20260903144304 | 62 | 250 | 1.0 | 4.0 | 0.00 | 0.00 | 0.00 | 25 | 1012.1 |
| 20260903144204 | 62 | 0 | 0.0 | 4.0 | 0.00 | 0.00 | 0.00 | 25 | 1012.0 |
| 20260903144104 | 61 | 241 | 1.0 | 4.0 | 0.00 | 0.00 | 0.00 | 25 | 1012.0 |
| 20260903144004 | 61 | 216 | 2.0 | 4.0 | 0.00 | 0.00 | 0.00 | 26 | 1012.1 |
| 20260903143904 | 61 | 195 | 2.0 | 4.0 | 0.00 | 0.00 | 0.00 | 27 | 1012.1 |
| 20260903143804 | 61 | 174 | 2.0 | 3.0 | 0.00 | 0.00 | 0.00 | 27 | 1012.0 |
| 20260903143704 | 61 | 0 | 0.0 | 2.0 | 0.00 | 0.00 | 0.00 | 27 | 1012.1 |
| 20260903143604 | 61 | 0 | 0.0 | 2.0 | 0.00 | 0.00 | 0.00 | 29 | 1012.1 |
| 20260903143504 | 60 | 0 | 0.0 | 2.0 | 0.00 | 0.00 | 0.00 | 29 | 1012.0 |
| 20260903143404 | 60 | 0 | 0.0 | 3.0 | 0.00 | 0.00 | 0.00 | 29 | 1012.0 |
| 20260903143304 | 60 | 124 | 1.0 | 3.0 | 0.00 | 0.00 | 0.00 | 29 | 1012.0 |
| 20260903143204 | 60 | 0 | 0.0 | 4.0 | 0.00 | 0.00 | 0.00 | 29 | 1012.0 |
| 20260903143105 | 59 | 0 | 0.0 | 4.0 | 0.00 | 0.00 | 0.00 | 29 | 1012.0 |
| 20260903143005 | 59 | 0 | 0.0 | 6.0 | 0.00 | 0.00 | 0.00 | 29 | 1012.0 |
| 20260903142904 | 59 | 0 | 0.0 | 6.0 | 0.00 | 0.00 | 0.00 | 30 | 1012.0 |
| 20260903142804 | 59 | 87 | 1.0 | 6.0 | 0.00 | 0.00 | 0.00 | 30 | 1012.0 |
| 20260903142704 | 58 | 0 | 0.0 | 6.0 | 0.00 | 0.00 | 0.00 | 30 | 1012.0 |
| 20260903142604 | 58 | 90 | 1.0 | 6.0 | 0.00 | 0.00 | 0.00 | 31 | 1011.9 |
| 20260903142504 | 58 | 0 | 0.0 | 6.0 | 0.00 | 0.00 | 0.00 | 31 | 1012.0 |
| 20260903142404 | 57 | 92 | 1.0 | 6.0 | 0.00 | 0.00 | 0.00 | 32 | 1012.0 |
| 20260903142306 | 57 | 99 | 1.0 | 6.0 | 0.00 | 0.00 | 0.00 | 33 | 1012.0 |
| 20260903142204 | 57 | 101 | 2.0 | 6.0 | 0.00 | 0.00 | 0.00 | 33 | 1011.9 |
| 20260903142104 | 56 | 106 | 2.0 | 6.0 | 0.00 | 0.00 | 0.00 | 34 | 1011.9 |
| 20260903141505 | 54 | 76 | 1.0 | 5.0 | 0.00 | 0.00 | 0.00 | 37 | 1011.8 |
| 20260903141404 | 54 | 67 | 1.0 | 5.0 | 0.00 | 0.00 | 0.00 | 36 | 1011.8 |
| 20260903141304 | 54 | 69 | 1.0 | 5.0 | 0.00 | 0.00 | 0.00 | 36 | 1011.8 |
| 20260903141204 | 54 | 69 | 2.0 | 5.0 | 0.00 | 0.00 | 0.00 | 36 | 1011.8 |
| 20260903141104 | 53 | 73 | 2.0 | 5.0 | 0.00 | 0.00 | 0.00 | 35 | 1011.8 |
| 20260903141004 | 53 | 74 | 2.0 | 5.0 | 0.00 | 0.00 | 0.00 | 35 | 1011.8 |
| 20260903140804 | 53 | 85 | 2.0 | 3.0 | 0.00 | 0.00 | 0.00 | 35 | 1011.8 |
| 20260903140704 | 53 | 90 | 1.0 | 3.0 | 0.00 | 0.00 | 0.00 | 35 | 1011.8 |
| 20260903140603 | 52 | 90 | 1.0 | 3.0 | 0.00 | 0.00 | 0.00 | 35 | 1011.9 |
| 20260903140504 | 52 | 90 | 2.0 | 3.0 | 0.00 | 0.00 | 0.00 | 35 | 1011.8 |
| 20260903140404 | 52 | 97 | 2.0 | 3.0 | 0.00 | 0.00 | 0.00 | 36 | 1011.8 |
| 20260903140304 | 52 | 102 | 1.0 | 3.0 | 0.00 | 0.00 | 0.00 | 36 | 1011.8 |
| 20260903140204 | 51 | 0 | 0.0 | 4.0 | 0.00 | 0.00 | 0.00 | 37 | 1011.9 |
| 20260903140104 | 51 | 104 | 2.0 | 4.0 | 0.00 | 0.00 | 0.00 | 37 | 1011.9 |
| 20260903140005 | 51 | 103 | 2.0 | 4.0 | 0.00 | 0.00 | 0.00 | 37 | 1011.8 |
| 20260903135904 | 51 | 102 | 2.0 | 4.0 | 0.00 | 0.00 | 0.00 | 38 | 1011.8 |
| 20260903135804 | 51 | 97 | 1.0 | 4.0 | 0.00 | 0.00 | 0.00 | 38 | 1011.8 |
| 20260903135704 | 51 | 0 | 0.0 | 4.0 | 0.00 | 0.00 | 0.00 | 38 | 1011.8 |
| 20260903135604 | 51 | 0 | 0.0 | 4.0 | 0.00 | 0.00 | 0.00 | 38 | 1011.9 |
| 20260903135504 | 50 | 0 | 0.0 | 4.0 | 0.00 | 0.00 | 0.00 | 37 | 1011.8 |
| 20260903135404 | 50 | 96 | 1.0 | 4.0 | 0.00 | 0.00 | 0.00 | 37 | 1011.8 |
| 20260903135306 | 50 | 93 | 2.0 | 4.0 | 0.00 | 0.00 | 0.00 | 37 | 1011.9 |
| 20260903135204 | 50 | 92 | 2.0 | 4.0 | 0.00 | 0.00 | 0.00 | 37 | 1011.8 |
| 20260903135104 | 50 | 95 | 2.0 | 4.0 | 0.00 | 0.00 | 0.00 | 37 | 1011.8 |
| 20260903135004 | 50 | 96 | 2.0 | 3.0 | 0.00 | 0.00 | 0.00 | 37 | 1011.8 |
| 20260903134904 | 50 | 96 | 2.0 | 3.0 | 0.00 | 0.00 | 0.00 | 37 | 1011.7 |
| 20260903134803 | 50 | 96 | 2.0 | 3.0 | 0.00 | 0.00 | 0.00 | 37 | 1011.7 |
| 20260903134704 | 50 | 96 | 2.0 | 4.0 | 0.00 | 0.00 | 0.00 | 37 | 1011.9 |
| 20260903134604 | 50 | 93 | 2.0 | 4.0 | 0.00 | 0.00 | 0.00 | 37 | 1011.8 |
| 20260903134504 | 50 | 94 | 2.0 | 4.0 | 0.00 | 0.00 | 0.00 | 37 | 1011.8 |
| 20260903134404 | 50 | 97 | 2.0 | 4.0 | 0.00 | 0.00 | 0.00 | 37 | 1011.8 |
| 20260903134304 | 50 | 98 | 2.0 | 4.0 | 0.00 | 0.00 | 0.00 | 38 | 1011.7 |
| 20260903134204 | 50 | 99 | 2.0 | 4.0 | 0.00 | 0.00 | 0.00 | 38 | 1011.7 |
| 20260903134105 | 50 | 99 | 2.0 | 4.0 | 0.00 | 0.00 | 0.00 | 38 | 1011.8 |
| 20260903133504 | 49 | 103 | 1.0 | 7.0 | 0.00 | 0.00 | 0.00 | 38 | 1011.8 |
| 20260903133004 | 49 | 88 | 1.0 | 7.0 | 0.00 | 0.00 | 0.00 | 38 | 1011.7 |
| 20260903132904 | 49 | 84 | 2.0 | 7.0 | 0.00 | 0.00 | 0.00 | 38 | 1011.7 |
| 20260903132804 | 49 | 83 | 3.0 | 7.0 | 0.00 | 0.00 | 0.00 | 38 | 1011.7 |
| 20260903132704 | 49 | 79 | 4.0 | 7.0 | 0.00 | 0.00 | 0.00 | 38 | 1011.8 |
| 20260903132604 | 49 | 78 | 5.0 | 7.0 | 0.00 | 0.00 | 0.00 | 38 | 1011.6 |
| 20260903132505 | 49 | 78 | 3.0 | 7.0 | 0.00 | 0.00 | 0.00 | 38 | 1011.7 |
| 20260903132104 | 49 | 58 | 3.0 | 4.0 | 0.00 | 0.00 | 0.00 | 37 | 1011.7 |
| 20260903132004 | 49 | 57 | 3.0 | 4.0 | 0.00 | 0.00 | 0.00 | 37 | 1011.7 |
| 20260903131904 | 49 | 64 | 2.0 | 4.0 | 0.00 | 0.00 | 0.00 | 36 | 1011.7 |
| 20260903131804 | 49 | 69 | 2.0 | 4.0 | 0.00 | 0.00 | 0.00 | 36 | 1011.6 |
| 20260903131703 | 50 | 71 | 2.0 | 4.0 | 0.00 | 0.00 | 0.00 | 36 | 1011.7 |
| 20260903131604 | 50 | 74 | 2.0 | 4.0 | 0.00 | 0.00 | 0.00 | 36 | 1011.7 |
| 20260903131504 | 50 | 77 | 2.0 | 4.0 | 0.00 | 0.00 | 0.00 | 36 | 1011.6 |
| 20260903131404 | 50 | 81 | 1.0 | 4.0 | 0.00 | 0.00 | 0.00 | 36 | 1011.7 |
| 20260903131303 | 50 | 81 | 2.0 | 4.0 | 0.00 | 0.00 | 0.00 | 36 | 1011.7 |
| 20260903131204 | 50 | 78 | 2.0 | 4.0 | 0.00 | 0.00 | 0.00 | 36 | 1011.7 |
| 20260903131104 | 50 | 80 | 2.0 | 4.0 | 0.00 | 0.00 | 0.00 | 36 | 1011.7 |
| 20260903131004 | 50 | 79 | 3.0 | 4.0 | 0.00 | 0.00 | 0.00 | 36 | 1011.8 |
| 20260903130903 | 50 | 78 | 2.0 | 4.0 | 0.00 | 0.00 | 0.00 | 36 | 1011.8 |
| 20260903130804 | 50 | 78 | 2.0 | 4.0 | 0.00 | 0.00 | 0.00 | 36 | 1011.8 |
| 20260903130704 | 50 | 79 | 1.0 | 4.0 | 0.00 | 0.00 | 0.00 | 36 | 1011.8 |
| 20260903130604 | 50 | 79 | 2.0 | 4.0 | 0.00 | 0.00 | 0.00 | 36 | 1011.8 |
| 20260903130503 | 50 | 79 | 2.0 | 4.0 | 0.00 | 0.00 | 0.00 | 36 | 1011.8 |
| 20260903130404 | 50 | 79 | 1.0 | 4.0 | 0.00 | 0.00 | 0.00 | 36 | 1011.8 |
| 20260903130304 | 50 | 86 | 2.0 | 4.0 | 0.00 | 0.00 | 0.00 | 37 | 1011.8 |
| 20260903130204 | 50 | 90 | 1.0 | 4.0 | 0.00 | 0.00 | 0.00 | 37 | 1011.7 |
| 20260903130104 | 50 | 90 | 1.0 | 4.0 | 0.00 | 0.00 | 0.00 | 37 | 1011.8 |
| 20260903130004 | 50 | 89 | 1.0 | 4.0 | 0.00 | 0.00 | 0.00 | 37 | 1011.7 |
| 20260903125904 | 50 | 88 | 2.0 | 4.0 | 0.00 | 0.00 | 0.00 | 37 | 1011.7 |
| 20260903125804 | 50 | 88 | 2.0 | 4.0 | 0.00 | 0.00 | 0.00 | 38 | 1011.7 |
| 20260903125704 | 50 | 88 | 2.0 | 4.0 | 0.00 | 0.00 | 0.00 | 38 | 1011.7 |
| 20260903125604 | 50 | 89 | 2.0 | 4.0 | 0.00 | 0.00 | 0.00 | 38 | 1011.7 |
| 20260903125504 | 50 | 90 | 2.0 | 4.0 | 0.00 | 0.00 | 0.00 | 38 | 1011.7 |
| 20260903125004 | 51 | 92 | 1.0 | 4.0 | 0.00 | 0.00 | 0.00 | 37 | 1011.8 |
| 20260903124504 | 51 | 84 | 2.0 | 4.0 | 0.00 | 0.00 | 0.00 | 36 | 1011.8 |
| 20260903124404 | 51 | 87 | 2.0 | 4.0 | 0.00 | 0.00 | 0.00 | 36 | 1011.7 |
| 20260903124304 | 51 | 0 | 0.0 | 4.0 | 0.00 | 0.00 | 0.00 | 36 | 1011.7 |
| 20260903124204 | 51 | 0 | 0.0 | 4.0 | 0.00 | 0.00 | 0.00 | 36 | 1011.8 |
| 20260903124104 | 51 | 86 | 1.0 | 4.0 | 0.00 | 0.00 | 0.00 | 36 | 1011.8 |
| 20260903124004 | 51 | 90 | 2.0 | 4.0 | 0.00 | 0.00 | 0.00 | 36 | 1011.6 |
| 20260903123904 | 51 | 0 | 0.0 | 4.0 | 0.00 | 0.00 | 0.00 | 36 | 1011.7 |
| 20260903123804 | 51 | 0 | 0.0 | 4.0 | 0.00 | 0.00 | 0.00 | 36 | 1011.8 |
| 20260903123704 | 51 | 0 | 0.0 | 4.0 | 0.00 | 0.00 | 0.00 | 36 | 1011.8 |
| 20260903123603 | 52 | 69 | 1.0 | 4.0 | 0.00 | 0.00 | 0.00 | 36 | 1011.6 |
| 20260903123504 | 52 | 0 | 0.0 | 4.0 | 0.00 | 0.00 | 0.00 | 36 | 1011.7 |
| 20260903123404 | 52 | 66 | 1.0 | 4.0 | 0.00 | 0.00 | 0.00 | 36 | 1011.7 |
| 20260903122904 | 51 | 33 | 2.0 | 4.0 | 0.00 | 0.00 | 0.00 | 35 | 1011.6 |
| 20260903122804 | 52 | 35 | 2.0 | 4.0 | 0.00 | 0.00 | 0.00 | 35 | 1011.7 |
| 20260903122704 | 52 | 34 | 2.0 | 4.0 | 0.00 | 0.00 | 0.00 | 35 | 1011.8 |
| 20260903122604 | 52 | 31 | 2.0 | 4.0 | 0.00 | 0.00 | 0.00 | 34 | 1011.7 |
| 20260903122504 | 52 | 29 | 2.0 | 3.0 | 0.00 | 0.00 | 0.00 | 33 | 1011.8 |
| 20260903122404 | 52 | 16 | 2.0 | 3.0 | 0.00 | 0.00 | 0.00 | 33 | 1011.8 |
| 20260903122306 | 52 | 10 | 2.0 | 3.0 | 0.00 | 0.00 | 0.00 | 33 | 1011.8 |
| 20260903122204 | 53 | 3 | 2.0 | 3.0 | 0.00 | 0.00 | 0.00 | 33 | 1011.9 |
| 20260903122104 | 53 | 7 | 1.0 | 3.0 | 0.00 | 0.00 | 0.00 | 32 | 1011.8 |
| 20260903122004 | 53 | 19 | 1.0 | 3.0 | 0.00 | 0.00 | 0.00 | 32 | 1011.9 |
| 20260903121903 | 53 | 0 | 0.0 | 3.0 | 0.00 | 0.00 | 0.00 | 32 | 1011.8 |
| 20260903121804 | 53 | 0 | 0.0 | 3.0 | 0.00 | 0.00 | 0.00 | 31 | 1011.8 |
| 20260903121704 | 53 | 0 | 0.0 | 3.0 | 0.00 | 0.00 | 0.00 | 31 | 1011.9 |
| 20260903121604 | 53 | 0 | 0.0 | 3.0 | 0.00 | 0.00 | 0.00 | 31 | 1011.7 |
| 20260903121504 | 54 | 67 | 2.0 | 3.0 | 0.00 | 0.00 | 0.00 | 31 | 1011.8 |
| 20260903121404 | 54 | 0 | 0.0 | 3.0 | 0.00 | 0.00 | 0.00 | 30 | 1011.8 |
| 20260903121304 | 54 | 0 | 0.0 | 3.0 | 0.00 | 0.00 | 0.00 | 31 | 1011.9 |
| 20260903121204 | 54 | 0 | 0.0 | 3.0 | 0.00 | 0.00 | 0.00 | 30 | 1011.8 |
| 20260903121104 | 54 | 0 | 0.0 | 3.0 | 0.00 | 0.00 | 0.00 | 30 | 1011.9 |
| 20260903121003 | 54 | 87 | 2.0 | 3.0 | 0.00 | 0.00 | 0.00 | 30 | 1011.9 |
| 20260903120904 | 54 | 90 | 2.0 | 3.0 | 0.00 | 0.00 | 0.00 | 30 | 1011.9 |
| 20260903120804 | 54 | 90 | 2.0 | 3.0 | 0.00 | 0.00 | 0.00 | 30 | 1011.9 |
| 20260903120704 | 54 | 89 | 1.0 | 3.0 | 0.00 | 0.00 | 0.00 | 29 | 1011.9 |
| 20260903120603 | 54 | 102 | 1.0 | 8.0 | 0.00 | 0.00 | 0.00 | 29 | 1011.9 |
| 20260903120504 | 54 | 101 | 1.0 | 8.0 | 0.00 | 0.00 | 0.00 | 29 | 1012.0 |
| 20260903120404 | 54 | 102 | 1.0 | 8.0 | 0.00 | 0.00 | 0.00 | 29 | 1012.0 |
| 20260903120304 | 54 | 102 | 1.0 | 8.0 | 0.00 | 0.00 | 0.00 | 29 | 1012.0 |
| 20260903120204 | 54 | 105 | 1.0 | 8.0 | 0.00 | 0.00 | 0.00 | 29 | 1011.9 |
| 20260903120104 | 54 | 111 | 1.0 | 8.0 | 0.00 | 0.00 | 0.00 | 29 | 1011.9 |
| 20260903120004 | 54 | 0 | 0.0 | 8.0 | 0.00 | 0.00 | 0.00 | 29 | 1011.9 |
| 20260903115903 | 54 | 107 | 1.0 | 8.0 | 0.00 | 0.00 | 0.00 | 29 | 1011.9 |
| 20260903115804 | 54 | 107 | 1.0 | 8.0 | 0.00 | 0.00 | 0.00 | 29 | 1012.0 |
| 20260903115704 | 54 | 107 | 2.0 | 8.0 | 0.00 | 0.00 | 0.00 | 29 | 1011.9 |
| 20260903114904 | 54 | 111 | 2.0 | 6.0 | 0.00 | 0.00 | 0.00 | 28 | 1011.8 |
| 20260903114804 | 54 | 113 | 2.0 | 6.0 | 0.00 | 0.00 | 0.00 | 27 | 1011.8 |
| 20260903114704 | 54 | 117 | 2.0 | 6.0 | 0.00 | 0.00 | 0.00 | 27 | 1011.8 |
| 20260903114604 | 54 | 122 | 2.0 | 6.0 | 0.00 | 0.00 | 0.00 | 27 | 1011.9 |
| 20260903114504 | 54 | 120 | 1.0 | 6.0 | 0.00 | 0.00 | 0.00 | 27 | 1011.9 |
| 20260903114005 | 54 | 118 | 2.0 | 5.0 | 0.00 | 0.00 | 0.00 | 27 | 1011.8 |
| 20260903113904 | 54 | 115 | 2.0 | 5.0 | 0.00 | 0.00 | 0.00 | 26 | 1011.8 |
| 20260903113804 | 54 | 111 | 2.0 | 5.0 | 0.00 | 0.00 | 0.00 | 26 | 1011.9 |
| 20260903113703 | 54 | 109 | 2.0 | 5.0 | 0.00 | 0.00 | 0.00 | 26 | 1011.9 |
| 20260903113604 | 55 | 107 | 2.0 | 5.0 | 0.00 | 0.00 | 0.00 | 26 | 1011.8 |
| 20260903113504 | 55 | 107 | 2.0 | 5.0 | 0.00 | 0.00 | 0.00 | 25 | 1011.8 |
| 20260903113404 | 55 | 106 | 3.0 | 5.0 | 0.00 | 0.00 | 0.00 | 25 | 1011.8 |
| 20260903113303 | 55 | 108 | 2.0 | 4.0 | 0.00 | 0.00 | 0.00 | 25 | 1011.8 |
| 20260903113204 | 55 | 104 | 2.0 | 4.0 | 0.00 | 0.00 | 0.00 | 25 | 1011.9 |
| 20260903113104 | 55 | 95 | 2.0 | 4.0 | 0.00 | 0.00 | 0.00 | 25 | 1011.8 |
| 20260903113004 | 55 | 100 | 1.0 | 4.0 | 0.00 | 0.00 | 0.00 | 25 | 1011.8 |
| 20260903112904 | 55 | 105 | 2.0 | 4.0 | 0.00 | 0.00 | 0.00 | 25 | 1011.8 |
| 20260903112803 | 55 | 107 | 2.0 | 5.0 | 0.00 | 0.00 | 0.00 | 25 | 1011.8 |
| 20260903112704 | 55 | 105 | 2.0 | 8.0 | 0.00 | 0.00 | 0.00 | 24 | 1011.9 |
| 20260903112604 | 55 | 101 | 2.0 | 8.0 | 0.00 | 0.00 | 0.00 | 24 | 1011.9 |
| 20260903112403 | 56 | 101 | 2.0 | 8.0 | 0.00 | 0.00 | 0.00 | 24 | 1011.8 |
| 20260903112305 | 56 | 98 | 2.0 | 8.0 | 0.00 | 0.00 | 0.00 | 24 | 1011.9 |
| 20260903112204 | 56 | 97 | 2.0 | 8.0 | 0.00 | 0.00 | 0.00 | 24 | 1011.9 |
| 20260903112104 | 56 | 97 | 2.0 | 8.0 | 0.00 | 0.00 | 0.00 | 23 | 1011.9 |
| 20260903112004 | 56 | 96 | 2.0 | 8.0 | 0.00 | 0.00 | 0.00 | 23 | 1011.9 |
| 20260903111904 | 56 | 95 | 3.0 | 8.0 | 0.00 | 0.00 | 0.00 | 23 | 1011.9 |
| 20260903111804 | 56 | 92 | 2.0 | 8.0 | 0.00 | 0.00 | 0.00 | 23 | 1011.9 |
| 20260903111704 | 56 | 92 | 6.0 | 9.0 | 0.00 | 0.00 | 0.00 | 23 | 1011.9 |
| 20260903111603 | 56 | 92 | 2.0 | 9.0 | 0.00 | 0.00 | 0.00 | 23 | 1012.0 |
| 20260903111504 | 56 | 92 | 2.0 | 9.0 | 0.00 | 0.00 | 0.00 | 23 | 1011.9 |
| 20260903111404 | 56 | 92 | 3.0 | 9.0 | 0.00 | 0.00 | 0.00 | 23 | 1011.9 |
| 20260903111304 | 56 | 92 | 3.0 | 9.0 | 0.00 | 0.00 | 0.00 | 23 | 1011.9 |
| 20260903111205 | 56 | 93 | 5.0 | 9.0 | 0.00 | 0.00 | 0.00 | 22 | 1011.8 |
| 20260903111104 | 57 | 93 | 3.0 | 9.0 | 0.00 | 0.00 | 0.00 | 22 | 1011.9 |
| 20260903111004 | 57 | 91 | 2.0 | 9.0 | 0.00 | 0.00 | 0.00 | 22 | 1012.0 |
| 20260903110904 | 57 | 90 | 2.0 | 9.0 | 0.00 | 0.00 | 0.00 | 23 | 1012.0 |
| 20260903110804 | 57 | 90 | 4.0 | 11.0 | 0.00 | 0.00 | 0.00 | 23 | 1012.0 |
| 20260903110704 | 56 | 90 | 2.0 | 11.0 | 0.00 | 0.00 | 0.00 | 23 | 1012.0 |
| 20260903110604 | 56 | 90 | 2.0 | 11.0 | 0.00 | 0.00 | 0.00 | 23 | 1012.1 |
| 20260903110504 | 56 | 90 | 2.0 | 11.0 | 0.00 | 0.00 | 0.00 | 23 | 1012.1 |
| 20260903110404 | 56 | 90 | 2.0 | 11.0 | 0.00 | 0.00 | 0.00 | 23 | 1012.2 |
| 20260903110304 | 56 | 90 | 2.0 | 11.0 | 0.00 | 0.00 | 0.00 | 23 | 1012.0 |
| 20260903110204 | 56 | 92 | 2.0 | 11.0 | 0.00 | 0.00 | 0.00 | 23 | 1012.0 |
| 20260903110104 | 56 | 94 | 2.0 | 11.0 | 0.00 | 0.00 | 0.00 | 23 | 1012.1 |
| 20260903110004 | 56 | 94 | 2.0 | 11.0 | 0.00 | 0.00 | 0.00 | 23 | 1012.1 |
| 20260903105904 | 56 | 94 | 4.0 | 11.0 | 0.00 | 0.00 | 0.00 | 23 | 1012.2 |
| 20260903105804 | 56 | 94 | 9.0 | 11.0 | 0.00 | 0.00 | 0.00 | 23 | 1011.9 |
| 20260903105704 | 56 | 98 | 8.0 | 11.0 | 0.00 | 0.00 | 0.00 | 23 | 1012.0 |
| 20260903105604 | 56 | 104 | 7.0 | 9.0 | 0.00 | 0.00 | 0.00 | 23 | 1012.0 |
| 20260903105504 | 56 | 108 | 1.0 | 8.0 | 0.00 | 0.00 | 0.00 | 23 | 1012.1 |
| 20260903105404 | 56 | 0 | 0.0 | 8.0 | 0.00 | 0.00 | 0.00 | 23 | 1012.1 |
| 20260903105306 | 56 | 108 | 1.0 | 8.0 | 0.00 | 0.00 | 0.00 | 23 | 1012.1 |
| 20260903105203 | 56 | 105 | 1.0 | 8.0 | 0.00 | 0.00 | 0.00 | 23 | 1012.1 |
| 20260903105104 | 56 | 104 | 3.0 | 8.0 | 0.00 | 0.00 | 0.00 | 23 | 1012.0 |
| 20260903104404 | 55 | 110 | 3.0 | 8.0 | 0.00 | 0.00 | 0.00 | 24 | 1012.2 |
| 20260903104304 | 55 | 105 | 2.0 | 8.0 | 0.00 | 0.00 | 0.00 | 24 | 1012.1 |
| 20260903104203 | 55 | 107 | 3.0 | 8.0 | 0.00 | 0.00 | 0.00 | 24 | 1012.1 |
| 20260903104104 | 55 | 108 | 5.0 | 8.0 | 0.00 | 0.00 | 0.00 | 24 | 1012.1 |
| 20260903104005 | 55 | 112 | 2.0 | 5.0 | 0.00 | 0.00 | 0.00 | 24 | 1012.0 |
| 20260903103903 | 55 | 106 | 2.0 | 5.0 | 0.00 | 0.00 | 0.00 | 24 | 1011.9 |
| 20260903103804 | 55 | 102 | 2.0 | 5.0 | 0.00 | 0.00 | 0.00 | 24 | 1012.0 |
| 20260903103704 | 55 | 101 | 1.0 | 5.0 | 0.00 | 0.00 | 0.00 | 24 | 1012.1 |
| 20260903103604 | 55 | 98 | 2.0 | 5.0 | 0.00 | 0.00 | 0.00 | 23 | 1012.0 |
| 20260903103504 | 55 | 104 | 2.0 | 5.0 | 0.00 | 0.00 | 0.00 | 23 | 1012.0 |
| 20260903103404 | 55 | 110 | 2.0 | 5.0 | 0.00 | 0.00 | 0.00 | 23 | 1012.1 |
| 20260903103304 | 56 | 109 | 2.0 | 5.0 | 0.00 | 0.00 | 0.00 | 23 | 1012.0 |
| 20260903103204 | 56 | 105 | 2.0 | 7.0 | 0.00 | 0.00 | 0.00 | 22 | 1012.0 |
| 20260903103104 | 56 | 101 | 2.0 | 7.0 | 0.00 | 0.00 | 0.00 | 22 | 1012.0 |
| 20260903103004 | 56 | 101 | 4.0 | 7.0 | 0.00 | 0.00 | 0.00 | 22 | 1012.0 |
| 20260903102804 | 56 | 100 | 2.0 | 8.0 | 0.00 | 0.00 | 0.00 | 22 | 1011.9 |
| 20260903102704 | 56 | 101 | 2.0 | 8.0 | 0.00 | 0.00 | 0.00 | 22 | 1011.9 |
| 20260903102604 | 56 | 99 | 2.0 | 8.0 | 0.00 | 0.00 | 0.00 | 22 | 1012.0 |
| 20260903102504 | 56 | 95 | 2.0 | 8.0 | 0.00 | 0.00 | 0.00 | 22 | 1012.0 |
| 20260903102404 | 56 | 91 | 3.0 | 8.0 | 0.00 | 0.00 | 0.00 | 21 | 1012.0 |
| 20260903102305 | 56 | 90 | 4.0 | 8.0 | 0.00 | 0.00 | 0.00 | 21 | 1012.0 |
| 20260903102203 | 57 | 90 | 5.0 | 9.0 | 0.00 | 0.00 | 0.00 | 21 | 1012.0 |
| 20260903102104 | 57 | 90 | 3.0 | 9.0 | 0.00 | 0.00 | 0.00 | 21 | 1011.9 |
| 20260903102004 | 57 | 90 | 2.0 | 9.0 | 0.00 | 0.00 | 0.00 | 21 | 1011.8 |
| 20260903101904 | 57 | 93 | 2.0 | 9.0 | 0.00 | 0.00 | 0.00 | 21 | 1011.9 |
| 20260903101803 | 57 | 91 | 5.0 | 9.0 | 0.00 | 0.00 | 0.00 | 20 | 1011.9 |
| 20260903101704 | 57 | 90 | 6.0 | 9.0 | 0.00 | 0.00 | 0.00 | 21 | 1011.8 |
| 20260903101604 | 57 | 90 | 6.0 | 9.0 | 0.00 | 0.00 | 0.00 | 21 | 1011.8 |
| 20260903101504 | 57 | 90 | 6.0 | 9.0 | 0.00 | 0.00 | 0.00 | 20 | 1011.8 |
| 20260903101404 | 57 | 90 | 4.0 | 9.0 | 0.00 | 0.00 | 0.00 | 20 | 1011.9 |
| 20260903100603 | 57 | 92 | 3.0 | 7.0 | 0.00 | 0.00 | 0.00 | 20 | 1011.9 |
| 20260903100504 | 57 | 92 | 3.0 | 7.0 | 0.00 | 0.00 | 0.00 | 20 | 1011.9 |
| 20260903100404 | 57 | 95 | 3.0 | 7.0 | 0.00 | 0.00 | 0.00 | 20 | 1011.9 |
| 20260903100304 | 57 | 101 | 3.0 | 7.0 | 0.00 | 0.00 | 0.00 | 20 | 1011.9 |
| 20260903100203 | 57 | 109 | 3.0 | 7.0 | 0.00 | 0.00 | 0.00 | 20 | 1011.9 |
| 20260903100104 | 57 | 109 | 3.0 | 7.0 | 0.00 | 0.00 | 0.00 | 20 | 1012.0 |
| 20260903100004 | 57 | 112 | 3.0 | 7.0 | 0.00 | 0.00 | 0.00 | 20 | 1012.0 |
| 20260903095904 | 57 | 119 | 3.0 | 7.0 | 0.00 | 0.00 | 0.00 | 20 | 1012.0 |
| 20260903095804 | 57 | 129 | 4.0 | 7.0 | 0.00 | 0.00 | 0.00 | 20 | 1011.9 |
| 20260903095703 | 57 | 138 | 2.0 | 6.0 | 0.00 | 0.00 | 0.00 | 20 | 1012.0 |
| 20260903095604 | 57 | 140 | 2.0 | 6.0 | 0.00 | 0.00 | 0.00 | 20 | 1012.0 |
| 20260903095504 | 57 | 0 | 0.0 | 6.0 | 0.00 | 0.00 | 0.00 | 20 | 1012.0 |
| 20260903095404 | 57 | 132 | 2.0 | 6.0 | 0.00 | 0.00 | 0.00 | 20 | 1012.0 |
| 20260903095306 | 56 | 117 | 2.0 | 6.0 | 0.00 | 0.00 | 0.00 | 20 | 1012.0 |
| 20260903095204 | 56 | 96 | 1.0 | 6.0 | 0.00 | 0.00 | 0.00 | 21 | 1012.0 |
| 20260903095104 | 56 | 82 | 2.0 | 4.0 | 0.00 | 0.00 | 0.00 | 21 | 1011.9 |
| 20260903094904 | 56 | 51 | 1.0 | 4.0 | 0.00 | 0.00 | 0.00 | 21 | 1012.0 |
| 20260903094804 | 56 | 0 | 0.0 | 5.0 | 0.00 | 0.00 | 0.00 | 20 | 1011.9 |
| 20260903094703 | 56 | 0 | 0.0 | 6.0 | 0.00 | 0.00 | 0.00 | 20 | 1012.0 |
| 20260903094604 | 56 | 0 | 0.0 | 6.0 | 0.00 | 0.00 | 0.00 | 20 | 1012.0 |
| 20260903094504 | 56 | 74 | 1.0 | 6.0 | 0.00 | 0.00 | 0.00 | 20 | 1012.0 |
| 20260903094405 | 56 | 73 | 2.0 | 6.0 | 0.00 | 0.00 | 0.00 | 20 | 1012.0 |
| 20260903094304 | 56 | 76 | 1.0 | 6.0 | 0.00 | 0.00 | 0.00 | 20 | 1011.9 |
| 20260903094204 | 56 | 82 | 2.0 | 6.0 | 0.00 | 0.00 | 0.00 | 20 | 1012.0 |
| 20260903094104 | 56 | 90 | 1.0 | 6.0 | 0.00 | 0.00 | 0.00 | 21 | 1012.0 |
| 20260903094003 | 56 | 101 | 3.0 | 6.0 | 0.00 | 0.00 | 0.00 | 21 | 1011.9 |
| 20260903093804 | 56 | 113 | 2.0 | 6.0 | 0.00 | 0.00 | 0.00 | 21 | 1011.9 |
| 20260903093704 | 56 | 113 | 4.0 | 6.0 | 0.00 | 0.00 | 0.00 | 21 | 1012.0 |
| 20260903093604 | 56 | 119 | 3.0 | 4.0 | 0.00 | 0.00 | 0.00 | 21 | 1011.8 |
| 20260903093504 | 56 | 0 | 0.0 | 4.0 | 0.00 | 0.00 | 0.00 | 22 | 1012.0 |
| 20260903093404 | 56 | 0 | 0.0 | 4.0 | 0.00 | 0.00 | 0.00 | 22 | 1011.9 |
| 20260903093304 | 56 | 110 | 1.0 | 4.0 | 0.00 | 0.00 | 0.00 | 22 | 1011.9 |
| 20260903093204 | 56 | 0 | 0.0 | 4.0 | 0.00 | 0.00 | 0.00 | 22 | 1012.0 |
| 20260903093103 | 56 | 90 | 1.0 | 4.0 | 0.00 | 0.00 | 0.00 | 22 | 1012.0 |
| 20260903093004 | 56 | 86 | 1.0 | 4.0 | 0.00 | 0.00 | 0.00 | 21 | 1012.0 |
| 20260903092904 | 56 | 86 | 1.0 | 4.0 | 0.00 | 0.00 | 0.00 | 21 | 1012.0 |
| 20260903092804 | 56 | 77 | 1.0 | 6.0 | 0.00 | 0.00 | 0.00 | 21 | 1012.0 |
| 20260903092703 | 56 | 0 | 0.0 | 6.0 | 0.00 | 0.00 | 0.00 | 21 | 1012.0 |
| 20260903092604 | 56 | 65 | 1.0 | 6.0 | 0.00 | 0.00 | 0.00 | 21 | 1012.1 |
| 20260903092504 | 56 | 62 | 2.0 | 6.0 | 0.00 | 0.00 | 0.00 | 21 | 1011.9 |
| 20260903092404 | 56 | 62 | 2.0 | 6.0 | 0.00 | 0.00 | 0.00 | 20 | 1012.0 |
| 20260903092306 | 56 | 67 | 2.0 | 6.0 | 0.00 | 0.00 | 0.00 | 20 | 1012.1 |
| 20260903092204 | 56 | 72 | 1.0 | 6.0 | 0.00 | 0.00 | 0.00 | 20 | 1012.1 |
| 20260903092104 | 56 | 77 | 2.0 | 6.0 | 0.00 | 0.00 | 0.00 | 20 | 1012.1 |
| 20260903092004 | 56 | 79 | 2.0 | 6.0 | 0.00 | 0.00 | 0.00 | 20 | 1012.2 |
| 20260903091903 | 57 | 80 | 2.0 | 6.0 | 0.00 | 0.00 | 0.00 | 20 | 1012.2 |
| 20260903091804 | 57 | 83 | 4.0 | 6.0 | 0.00 | 0.00 | 0.00 | 20 | 1012.2 |
| 20260903091704 | 57 | 91 | 2.0 | 5.0 | 0.00 | 0.00 | 0.00 | 20 | 1012.2 |
| 20260903091604 | 57 | 93 | 2.0 | 5.0 | 0.00 | 0.00 | 0.00 | 20 | 1012.2 |
| 20260903091504 | 57 | 93 | 2.0 | 5.0 | 0.00 | 0.00 | 0.00 | 20 | 1012.2 |
| 20260903091404 | 57 | 93 | 1.0 | 5.0 | 0.00 | 0.00 | 0.00 | 20 | 1012.2 |
| 20260903091304 | 57 | 93 | 2.0 | 5.0 | 0.00 | 0.00 | 0.00 | 20 | 1012.2 |
| 20260903091204 | 57 | 93 | 4.0 | 5.0 | 0.00 | 0.00 | 0.00 | 20 | 1012.2 |
| 20260903091104 | 57 | 93 | 3.0 | 5.0 | 0.00 | 0.00 | 0.00 | 20 | 1012.2 |
| 20260903091003 | 57 | 93 | 4.0 | 5.0 | 0.00 | 0.00 | 0.00 | 19 | 1012.3 |
| 20260903090904 | 57 | 93 | 4.0 | 5.0 | 0.00 | 0.00 | 0.00 | 19 | 1012.2 |
| 20260903090804 | 57 | 92 | 3.0 | 4.0 | 0.00 | 0.00 | 0.00 | 19 | 1012.2 |
| 20260903090704 | 58 | 85 | 2.0 | 4.0 | 0.00 | 0.00 | 0.00 | 20 | 1012.2 |
| 20260903090604 | 58 | 85 | 2.0 | 4.0 | 0.00 | 0.00 | 0.00 | 20 | 1012.2 |
| 20260903090504 | 58 | 84 | 2.0 | 4.0 | 0.00 | 0.00 | 0.00 | 20 | 1012.3 |
| 20260903090404 | 58 | 86 | 2.0 | 4.0 | 0.00 | 0.00 | 0.00 | 20 | 1012.3 |
| 20260903090304 | 58 | 87 | 2.0 | 4.0 | 0.00 | 0.00 | 0.00 | 20 | 1012.3 |
| 20260903090204 | 58 | 91 | 2.0 | 4.0 | 0.00 | 0.00 | 0.00 | 20 | 1012.3 |
| 20260903090104 | 58 | 99 | 2.0 | 4.0 | 0.00 | 0.00 | 0.00 | 20 | 1012.3 |
| 20260903090004 | 58 | 105 | 2.0 | 4.0 | 0.00 | 0.00 | 0.00 | 20 | 1012.3 |
| 20260903085904 | 58 | 0 | 0.0 | 6.0 | 0.00 | 0.00 | 0.00 | 20 | 1012.3 |
| 20260903085804 | 58 | 70 | 2.0 | 8.0 | 0.00 | 0.00 | 0.00 | 20 | 1012.3 |
| 20260903085703 | 58 | 99 | 2.0 | 8.0 | 0.00 | 0.00 | 0.00 | 20 | 1012.3 |
| 20260903085604 | 58 | 99 | 2.0 | 8.0 | 0.00 | 0.00 | 0.00 | 20 | 1012.3 |
| 20260903085504 | 58 | 0 | 0.0 | 8.0 | 0.00 | 0.00 | 0.00 | 20 | 1012.4 |
| 20260903085404 | 58 | 94 | 1.0 | 8.0 | 0.00 | 0.00 | 0.00 | 20 | 1012.3 |
| 20260903085306 | 58 | 0 | 0.0 | 8.0 | 0.00 | 0.00 | 0.00 | 20 | 1012.4 |
| 20260903085204 | 57 | 97 | 2.0 | 8.0 | 0.00 | 0.00 | 0.00 | 20 | 1012.4 |
| 20260903085103 | 57 | 0 | 0.0 | 8.0 | 0.00 | 0.00 | 0.00 | 20 | 1012.3 |
| 20260903085004 | 57 | 0 | 0.0 | 8.0 | 0.00 | 0.00 | 0.00 | 20 | 1012.5 |
| 20260903084904 | 57 | 99 | 3.0 | 8.0 | 0.00 | 0.00 | 0.00 | 20 | 1012.5 |
| 20260903084803 | 57 | 108 | 5.0 | 8.0 | 0.00 | 0.00 | 0.00 | 21 | 1012.4 |
| 20260903084204 | 57 | 97 | 4.0 | 9.0 | 0.00 | 0.00 | 0.00 | 20 | 1012.4 |
| 20260903084104 | 57 | 94 | 5.0 | 9.0 | 0.00 | 0.00 | 0.00 | 21 | 1012.4 |
| 20260903084004 | 57 | 91 | 4.0 | 9.0 | 0.00 | 0.00 | 0.00 | 21 | 1012.3 |
| 20260903083904 | 57 | 91 | 1.0 | 9.0 | 0.00 | 0.00 | 0.00 | 21 | 1012.3 |
| 20260903083804 | 57 | 90 | 4.0 | 9.0 | 0.00 | 0.00 | 0.00 | 21 | 1012.3 |
| 20260903083704 | 57 | 90 | 6.0 | 9.0 | 0.00 | 0.00 | 0.00 | 21 | 1012.3 |
| 20260903083604 | 57 | 88 | 6.0 | 9.0 | 0.00 | 0.00 | 0.00 | 20 | 1012.3 |
| 20260903083504 | 57 | 90 | 3.0 | 9.0 | 0.00 | 0.00 | 0.00 | 21 | 1012.3 |
| 20260903083403 | 57 | 90 | 6.0 | 9.0 | 0.00 | 0.00 | 0.00 | 21 | 1012.3 |
| 20260903082904 | 58 | 90 | 4.0 | 8.0 | 0.00 | 0.00 | 0.00 | 20 | 1012.3 |
| 20260903082803 | 58 | 91 | 5.0 | 8.0 | 0.00 | 0.00 | 0.00 | 20 | 1012.2 |
| 20260903082704 | 58 | 93 | 4.0 | 8.0 | 0.00 | 0.00 | 0.00 | 20 | 1012.3 |
| 20260903082604 | 58 | 99 | 3.0 | 8.0 | 0.00 | 0.00 | 0.00 | 20 | 1012.2 |
| 20260903082504 | 58 | 99 | 5.0 | 8.0 | 0.00 | 0.00 | 0.00 | 20 | 1012.2 |
| 20260903082403 | 58 | 100 | 4.0 | 6.0 | 0.00 | 0.00 | 0.00 | 20 | 1012.3 |
| 20260903082306 | 58 | 102 | 2.0 | 6.0 | 0.00 | 0.00 | 0.00 | 19 | 1012.3 |
| 20260903082204 | 58 | 108 | 4.0 | 6.0 | 0.00 | 0.00 | 0.00 | 19 | 1012.3 |
| 20260903082104 | 58 | 111 | 3.0 | 6.0 | 0.00 | 0.00 | 0.00 | 19 | 1012.3 |
| 20260903082003 | 58 | 0 | 0.0 | 4.0 | 0.00 | 0.00 | 0.00 | 19 | 1012.3 |
| 20260903081904 | 58 | 120 | 2.0 | 4.0 | 0.00 | 0.00 | 0.00 | 19 | 1012.3 |
| 20260903081804 | 58 | 126 | 1.0 | 4.0 | 0.00 | 0.00 | 0.00 | 19 | 1012.2 |
| 20260903081704 | 58 | 126 | 1.0 | 4.0 | 0.00 | 0.00 | 0.00 | 19 | 1012.2 |
| 20260903081603 | 58 | 116 | 2.0 | 7.0 | 0.00 | 0.00 | 0.00 | 19 | 1012.2 |
| 20260903081503 | 58 | 109 | 2.0 | 7.0 | 0.00 | 0.00 | 0.00 | 19 | 1012.2 |
| 20260903081404 | 58 | 107 | 2.0 | 7.0 | 0.00 | 0.00 | 0.00 | 19 | 1012.2 |
| 20260903081304 | 58 | 104 | 1.0 | 7.0 | 0.00 | 0.00 | 0.00 | 19 | 1012.2 |
| 20260903081203 | 58 | 0 | 0.0 | 7.0 | 0.00 | 0.00 | 0.00 | 19 | 1012.0 |
| 20260903081104 | 58 | 98 | 1.0 | 7.0 | 0.00 | 0.00 | 0.00 | 19 | 1012.1 |
| 20260903081004 | 58 | 95 | 2.0 | 7.0 | 0.00 | 0.00 | 0.00 | 19 | 1012.2 |
| 20260903080904 | 58 | 0 | 0.0 | 7.0 | 0.00 | 0.00 | 0.00 | 19 | 1012.1 |
| 20260903080804 | 58 | 0 | 0.0 | 7.0 | 0.00 | 0.00 | 0.00 | 19 | 1012.1 |
| 20260903080704 | 58 | 89 | 5.0 | 7.0 | 0.00 | 0.00 | 0.00 | 21 | 1012.2 |
| 20260903080604 | 58 | 89 | 5.0 | 7.0 | 0.00 | 0.00 | 0.00 | 21 | 1012.2 |
| 20260903080504 | 58 | 89 | 5.0 | 7.0 | 0.00 | 0.00 | 0.00 | 21 | 1012.2 |
| 20260903080404 | 58 | 89 | 5.0 | 8.0 | 0.00 | 0.00 | 0.00 | 21 | 1012.2 |
| 20260903080304 | 58 | 89 | 5.0 | 9.0 | 0.00 | 0.00 | 0.00 | 21 | 1012.1 |
| 20260903080204 | 58 | 89 | 5.0 | 10.0 | 0.00 | 0.00 | 0.00 | 21 | 1012.0 |
| 20260903080104 | 58 | 85 | 5.0 | 10.0 | 0.00 | 0.00 | 0.00 | 21 | 1012.2 |
| 20260903080004 | 58 | 85 | 5.0 | 10.0 | 0.00 | 0.00 | 0.00 | 21 | 1012.0 |
| 20260903075903 | 58 | 86 | 3.0 | 10.0 | 0.00 | 0.00 | 0.00 | 21 | 1012.1 |
| 20260903075804 | 58 | 87 | 4.0 | 10.0 | 0.00 | 0.00 | 0.00 | 21 | 1012.2 |
| 20260903075604 | 57 | 87 | 4.0 | 10.0 | 0.00 | 0.00 | 0.00 | 22 | 1012.1 |
| 20260903075503 | 57 | 87 | 6.0 | 10.0 | 0.00 | 0.00 | 0.00 | 22 | 1012.1 |
| 20260903075404 | 57 | 87 | 7.0 | 10.0 | 0.00 | 0.00 | 0.00 | 23 | 1012.1 |
| 20260903075306 | 57 | 87 | 7.0 | 10.0 | 0.00 | 0.00 | 0.00 | 23 | 1012.1 |
| 20260903075204 | 57 | 87 | 6.0 | 10.0 | 0.00 | 0.00 | 0.00 | 24 | 1012.1 |
| 20260903075103 | 57 | 90 | 3.0 | 8.0 | 0.00 | 0.00 | 0.00 | 24 | 1012.1 |
| 20260903075004 | 57 | 90 | 5.0 | 8.0 | 0.00 | 0.00 | 0.00 | 25 | 1012.1 |
| 20260903074904 | 57 | 90 | 4.0 | 8.0 | 0.00 | 0.00 | 0.00 | 25 | 1012.1 |
| 20260903074804 | 57 | 90 | 4.0 | 8.0 | 0.00 | 0.00 | 0.00 | 25 | 1012.1 |
| 20260903074703 | 58 | 90 | 5.0 | 8.0 | 0.00 | 0.00 | 0.00 | 25 | 1012.0 |
| 20260903074604 | 58 | 90 | 4.0 | 8.0 | 0.00 | 0.00 | 0.00 | 25 | 1012.2 |
| 20260903074504 | 58 | 90 | 2.0 | 8.0 | 0.00 | 0.00 | 0.00 | 25 | 1012.1 |
| 20260903074404 | 58 | 90 | 5.0 | 10.0 | 0.00 | 0.00 | 0.00 | 25 | 1012.3 |
| 20260903074304 | 58 | 90 | 4.0 | 10.0 | 0.00 | 0.00 | 0.00 | 25 | 1012.1 |
| 20260903074204 | 58 | 90 | 3.0 | 10.0 | 0.00 | 0.00 | 0.00 | 25 | 1012.2 |
| 20260903074104 | 58 | 90 | 4.0 | 15.0 | 0.00 | 0.00 | 0.00 | 25 | 1012.1 |
| 20260903074004 | 58 | 90 | 3.0 | 15.0 | 0.00 | 0.00 | 0.00 | 24 | 1012.1 |
| 20260903073903 | 58 | 90 | 3.0 | 15.0 | 0.00 | 0.00 | 0.00 | 24 | 1012.3 |
| 20260903073804 | 58 | 90 | 2.0 | 15.0 | 0.00 | 0.00 | 0.00 | 24 | 1012.2 |
| 20260903073704 | 58 | 90 | 3.0 | 15.0 | 0.00 | 0.00 | 0.00 | 24 | 1012.1 |
| 20260903073604 | 58 | 91 | 2.0 | 15.0 | 0.00 | 0.00 | 0.00 | 24 | 1012.3 |
| 20260903073504 | 58 | 92 | 8.0 | 15.0 | 0.00 | 0.00 | 0.00 | 25 | 1012.2 |
| 20260903073404 | 58 | 92 | 8.0 | 15.0 | 0.00 | 0.00 | 0.00 | 25 | 1012.2 |
| 20260903073304 | 58 | 92 | 4.0 | 15.0 | 0.00 | 0.00 | 0.00 | 25 | 1012.1 |
| 20260903073204 | 58 | 92 | 4.0 | 15.0 | 0.00 | 0.00 | 0.00 | 25 | 1012.2 |
| 20260903073103 | 58 | 92 | 5.0 | 12.0 | 0.00 | 0.00 | 0.00 | 25 | 1012.1 |
| 20260903073004 | 58 | 92 | 7.0 | 12.0 | 0.00 | 0.00 | 0.00 | 26 | 1012.1 |
| 20260903072904 | 58 | 92 | 8.0 | 12.0 | 0.00 | 0.00 | 0.00 | 26 | 1012.2 |
| 20260903072804 | 58 | 93 | 9.0 | 12.0 | 0.00 | 0.00 | 0.00 | 26 | 1012.0 |
| 20260903072704 | 58 | 92 | 4.0 | 11.0 | 0.00 | 0.00 | 0.00 | 26 | 1012.0 |
| 20260903072604 | 58 | 95 | 4.0 | 11.0 | 0.00 | 0.00 | 0.00 | 26 | 1012.1 |
| 20260903072504 | 58 | 93 | 8.0 | 11.0 | 0.00 | 0.00 | 0.00 | 26 | 1012.0 |
| 20260903072404 | 58 | 93 | 4.0 | 11.0 | 0.00 | 0.00 | 0.00 | 26 | 1012.2 |
| 20260903071804 | 59 | 95 | 6.0 | 11.0 | 0.00 | 0.00 | 0.00 | 24 | 1012.2 |
| 20260903071704 | 59 | 96 | 7.0 | 11.0 | 0.00 | 0.00 | 0.00 | 24 | 1012.1 |
| 20260903071604 | 59 | 93 | 4.0 | 11.0 | 0.00 | 0.00 | 0.00 | 24 | 1012.1 |
| 20260903071504 | 59 | 92 | 7.0 | 11.0 | 0.00 | 0.00 | 0.00 | 24 | 1012.2 |
| 20260903071403 | 59 | 93 | 4.0 | 10.0 | 0.00 | 0.00 | 0.00 | 24 | 1012.2 |
| 20260903071304 | 59 | 92 | 3.0 | 10.0 | 0.00 | 0.00 | 0.00 | 24 | 1012.2 |
| 20260903071204 | 59 | 92 | 4.0 | 10.0 | 0.00 | 0.00 | 0.00 | 24 | 1012.2 |
| 20260903071103 | 59 | 92 | 4.0 | 10.0 | 0.00 | 0.00 | 0.00 | 24 | 1012.2 |
| 20260903071003 | 59 | 90 | 4.0 | 10.0 | 0.00 | 0.00 | 0.00 | 23 | 1012.2 |
| 20260903070904 | 59 | 90 | 6.0 | 10.0 | 0.00 | 0.00 | 0.00 | 24 | 1012.2 |
| 20260903070803 | 59 | 90 | 7.0 | 8.0 | 0.00 | 0.00 | 0.00 | 24 | 1012.2 |
| 20260903070703 | 59 | 90 | 6.0 | 8.0 | 0.00 | 0.00 | 0.00 | 24 | 1012.1 |
| 20260903070604 | 59 | 90 | 6.0 | 8.0 | 0.00 | 0.00 | 0.00 | 24 | 1012.1 |
| 20260903070504 | 59 | 93 | 6.0 | 8.0 | 0.00 | 0.00 | 0.00 | 24 | 1012.2 |
| 20260903070403 | 59 | 93 | 6.0 | 8.0 | 0.00 | 0.00 | 0.00 | 24 | 1012.1 |
| 20260903070303 | 59 | 99 | 6.0 | 8.0 | 0.00 | 0.00 | 0.00 | 24 | 1012.2 |
| 20260903070204 | 59 | 103 | 6.0 | 8.0 | 0.00 | 0.00 | 0.00 | 24 | 1012.1 |
| 20260903070104 | 59 | 106 | 6.0 | 8.0 | 0.00 | 0.00 | 0.00 | 24 | 1012.1 |
| 20260903070006 | 59 | 112 | 6.0 | 8.0 | 0.00 | 0.00 | 0.00 | 24 | 1012.1 |
| 20260903065903 | 59 | 124 | 3.0 | 8.0 | 0.00 | 0.00 | 0.00 | 24 | 1012.1 |
| 20260903065804 | 59 | 129 | 2.0 | 8.0 | 0.00 | 0.00 | 0.00 | 24 | 1012.1 |
| 20260903065704 | 59 | 127 | 2.0 | 8.0 | 0.00 | 0.00 | 0.00 | 24 | 1012.1 |
| 20260903065603 | 59 | 123 | 2.0 | 8.0 | 0.00 | 0.00 | 0.00 | 24 | 1012.1 |
| 20260903065504 | 59 | 123 | 7.0 | 8.0 | 0.00 | 0.00 | 0.00 | 24 | 1012.0 |
| 20260903065404 | 59 | 124 | 6.0 | 8.0 | 0.00 | 0.00 | 0.00 | 24 | 1012.1 |
| 20260903065306 | 59 | 115 | 3.0 | 9.0 | 0.00 | 0.00 | 0.00 | 24 | 1012.2 |
| 20260903065204 | 59 | 112 | 2.0 | 9.0 | 0.00 | 0.00 | 0.00 | 24 | 1012.2 |
| 20260903065104 | 59 | 112 | 3.0 | 9.0 | 0.00 | 0.00 | 0.00 | 24 | 1012.2 |
| 20260903064904 | 59 | 105 | 3.0 | 9.0 | 0.00 | 0.00 | 0.00 | 24 | 1012.1 |
| 20260903064804 | 59 | 102 | 2.0 | 9.0 | 0.00 | 0.00 | 0.00 | 24 | 1012.3 |
| 20260903064704 | 59 | 106 | 2.0 | 9.0 | 0.00 | 0.00 | 0.00 | 25 | 1012.3 |
| 20260903064604 | 59 | 105 | 2.0 | 9.0 | 0.00 | 0.00 | 0.00 | 24 | 1012.2 |
| 20260903064504 | 59 | 105 | 2.0 | 9.0 | 0.00 | 0.00 | 0.00 | 25 | 1012.2 |
| 20260903064404 | 59 | 107 | 4.0 | 9.0 | 0.00 | 0.00 | 0.00 | 25 | 1012.1 |
| 20260903064303 | 59 | 111 | 4.0 | 7.0 | 0.00 | 0.00 | 0.00 | 25 | 1012.1 |
| 20260903064204 | 59 | 106 | 2.0 | 7.0 | 0.00 | 0.00 | 0.00 | 26 | 1012.2 |
| 20260903064104 | 59 | 107 | 2.0 | 7.0 | 0.00 | 0.00 | 0.00 | 26 | 1012.1 |
| 20260903064003 | 59 | 109 | 2.0 | 8.0 | 0.00 | 0.00 | 0.00 | 26 | 1012.2 |
| 20260903063904 | 59 | 109 | 4.0 | 8.0 | 0.00 | 0.00 | 0.00 | 26 | 1012.2 |
| 20260903063804 | 59 | 110 | 1.0 | 8.0 | 0.00 | 0.00 | 0.00 | 25 | 1012.2 |
| 20260903063703 | 59 | 111 | 3.0 | 8.0 | 0.00 | 0.00 | 0.00 | 26 | 1012.2 |
| 20260903063604 | 59 | 113 | 3.0 | 8.0 | 0.00 | 0.00 | 0.00 | 26 | 1012.2 |
| 20260903063504 | 59 | 0 | 0.0 | 8.0 | 0.00 | 0.00 | 0.00 | 25 | 1012.2 |
| 20260903063403 | 59 | 109 | 1.0 | 8.0 | 0.00 | 0.00 | 0.00 | 26 | 1012.2 |
| 20260903063304 | 59 | 99 | 2.0 | 8.0 | 0.00 | 0.00 | 0.00 | 26 | 1012.1 |
| 20260903063204 | 59 | 101 | 2.0 | 8.0 | 0.00 | 0.00 | 0.00 | 27 | 1012.1 |
| 20260903063104 | 59 | 95 | 2.0 | 8.0 | 0.00 | 0.00 | 0.00 | 26 | 1012.2 |
| 20260903063003 | 59 | 90 | 3.0 | 8.0 | 0.00 | 0.00 | 0.00 | 26 | 1012.2 |
| 20260903062904 | 59 | 94 | 2.0 | 7.0 | 0.00 | 0.00 | 0.00 | 26 | 1012.2 |
| 20260903062704 | 59 | 89 | 1.0 | 7.0 | 0.00 | 0.00 | 0.00 | 27 | 1012.3 |
| 20260903062604 | 59 | 85 | 1.0 | 7.0 | 0.00 | 0.00 | 0.00 | 27 | 1012.3 |
| 20260903062504 | 59 | 85 | 2.0 | 7.0 | 0.00 | 0.00 | 0.00 | 28 | 1012.1 |
| 20260903062404 | 59 | 86 | 3.0 | 7.0 | 0.00 | 0.00 | 0.00 | 28 | 1012.3 |
| 20260903062306 | 59 | 94 | 3.0 | 5.0 | 0.00 | 0.00 | 0.00 | 27 | 1012.2 |
| 20260903062204 | 59 | 97 | 3.0 | 5.0 | 0.00 | 0.00 | 0.00 | 27 | 1012.2 |
| 20260903061704 | 59 | 120 | 2.0 | 4.0 | 0.00 | 0.00 | 0.00 | 29 | 1012.3 |
| 20260903061604 | 59 | 125 | 2.0 | 4.0 | 0.00 | 0.00 | 0.00 | 29 | 1012.3 |
| 20260903061504 | 59 | 126 | 1.0 | 4.0 | 0.00 | 0.00 | 0.00 | 29 | 1012.3 |
| 20260903061404 | 59 | 0 | 0.0 | 4.0 | 0.00 | 0.00 | 0.00 | 29 | 1012.3 |
| 20260903061303 | 59 | 113 | 1.0 | 4.0 | 0.00 | 0.00 | 0.00 | 29 | 1012.3 |
| 20260903061204 | 59 | 107 | 2.0 | 4.0 | 0.00 | 0.00 | 0.00 | 29 | 1012.3 |
| 20260903061103 | 59 | 107 | 1.0 | 4.0 | 0.00 | 0.00 | 0.00 | 28 | 1012.4 |
| 20260903061004 | 59 | 107 | 1.0 | 4.0 | 0.00 | 0.00 | 0.00 | 28 | 1012.3 |
| 20260903060904 | 59 | 97 | 2.0 | 4.0 | 0.00 | 0.00 | 0.00 | 28 | 1012.3 |
| 20260903060804 | 60 | 94 | 1.0 | 9.0 | 0.00 | 0.00 | 0.00 | 28 | 1012.3 |
| 20260903060704 | 61 | 79 | 1.0 | 9.0 | 0.00 | 0.00 | 0.00 | 25 | 1012.3 |
| 20260903060604 | 61 | 82 | 1.0 | 9.0 | 0.00 | 0.00 | 0.00 | 25 | 1012.3 |
| 20260903060504 | 61 | 82 | 1.0 | 9.0 | 0.00 | 0.00 | 0.00 | 25 | 1012.4 |
| 20260903060403 | 61 | 85 | 1.0 | 9.0 | 0.00 | 0.00 | 0.00 | 25 | 1012.3 |
| 20260903060304 | 61 | 90 | 1.0 | 9.0 | 0.00 | 0.00 | 0.00 | 25 | 1012.3 |
| 20260903060204 | 61 | 92 | 1.0 | 9.0 | 0.00 | 0.00 | 0.00 | 25 | 1012.3 |
| 20260903060104 | 61 | 99 | 1.0 | 9.0 | 0.00 | 0.00 | 0.00 | 25 | 1012.3 |
| 20260903060003 | 61 | 96 | 2.0 | 9.0 | 0.00 | 0.00 | 0.00 | 25 | 1012.3 |
| 20260903055904 | 61 | 112 | 2.0 | 9.0 | 0.00 | 0.00 | 0.00 | 25 | 1012.3 |
| 20260903055804 | 61 | 113 | 4.0 | 9.0 | 0.00 | 0.00 | 0.00 | 25 | 1012.3 |
| 20260903055704 | 61 | 125 | 2.0 | 8.0 | 0.00 | 0.00 | 0.00 | 24 | 1012.3 |
| 20260903055604 | 62 | 123 | 2.0 | 8.0 | 0.00 | 0.00 | 0.00 | 23 | 1012.4 |
| 20260903055504 | 62 | 121 | 1.0 | 8.0 | 0.00 | 0.00 | 0.00 | 22 | 1012.5 |
| 20260903055404 | 62 | 119 | 2.0 | 8.0 | 0.00 | 0.00 | 0.00 | 22 | 1012.5 |
| 20260903055306 | 62 | 116 | 1.0 | 8.0 | 0.00 | 0.00 | 0.00 | 20 | 1012.3 |
| 20260903055204 | 62 | 102 | 3.0 | 8.0 | 0.00 | 0.00 | 0.00 | 19 | 1012.4 |
| 20260903055104 | 62 | 89 | 4.0 | 8.0 | 0.00 | 0.00 | 0.00 | 16 | 1012.5 |
| 20260903055003 | 62 | 106 | 4.0 | 8.0 | 0.00 | 0.00 | 0.00 | 17 | 1012.4 |
| 20260903054904 | 62 | 99 | 1.0 | 7.0 | 0.00 | 0.00 | 0.00 | 18 | 1012.4 |
| 20260903054804 | 62 | 96 | 1.0 | 7.0 | 0.00 | 0.00 | 0.00 | 18 | 1012.4 |
| 20260903054704 | 62 | 99 | 4.0 | 7.0 | 0.00 | 0.00 | 0.00 | 16 | 1012.3 |
| 20260903054604 | 63 | 97 | 4.0 | 7.0 | 0.00 | 0.00 | 0.00 | 16 | 1012.4 |
| 20260903054504 | 62 | 93 | 4.0 | 7.0 | 0.00 | 0.00 | 0.00 | 16 | 1012.4 |
| 20260903054104 | 62 | 104 | 4.0 | 7.0 | 0.00 | 0.00 | 0.00 | 16 | 1012.4 |
| 20260903054004 | 63 | 99 | 2.0 | 6.0 | 0.00 | 0.00 | 0.00 | 16 | 1012.5 |
| 20260903053904 | 63 | 96 | 3.0 | 6.0 | 0.00 | 0.00 | 0.00 | 16 | 1012.5 |
| 20260903053804 | 63 | 95 | 3.0 | 5.0 | 0.00 | 0.00 | 0.00 | 16 | 1012.4 |
| 20260903053704 | 63 | 95 | 2.0 | 5.0 | 0.00 | 0.00 | 0.00 | 16 | 1012.4 |
| 20260903053604 | 63 | 95 | 2.0 | 6.0 | 0.00 | 0.00 | 0.00 | 16 | 1012.4 |
| 20260903053004 | 63 | 157 | 2.0 | 11.0 | 0.00 | 0.00 | 0.00 | 16 | 1012.5 |
| 20260903052903 | 63 | 178 | 2.0 | 11.0 | 0.00 | 0.00 | 0.00 | 17 | 1012.4 |
| 20260903052804 | 63 | 199 | 2.0 | 13.0 | 0.00 | 0.00 | 0.00 | 17 | 1012.4 |
| 20260903052704 | 63 | 224 | 2.0 | 13.0 | 0.00 | 0.00 | 0.00 | 17 | 1012.4 |
| 20260903052603 | 63 | 233 | 2.0 | 13.0 | 0.00 | 0.00 | 0.00 | 17 | 1012.5 |
| 20260903052504 | 63 | 232 | 2.0 | 13.0 | 0.00 | 0.00 | 0.00 | 17 | 1012.5 |
| 20260903052404 | 63 | 231 | 2.0 | 13.0 | 0.00 | 0.00 | 0.00 | 17 | 1012.4 |
| 20260903052306 | 63 | 237 | 2.0 | 13.0 | 0.00 | 0.00 | 0.00 | 16 | 1012.4 |
| 20260903052204 | 63 | 237 | 5.0 | 13.0 | 0.00 | 0.00 | 0.00 | 16 | 1012.4 |
| 20260903052104 | 63 | 241 | 5.0 | 13.0 | 0.00 | 0.00 | 0.00 | 16 | 1012.3 |
| 20260903052004 | 63 | 242 | 4.0 | 13.0 | 0.00 | 0.00 | 0.00 | 16 | 1012.3 |
| 20260903051904 | 63 | 243 | 4.0 | 17.0 | 0.00 | 0.00 | 0.00 | 16 | 1012.4 |
| 20260903051804 | 63 | 240 | 5.0 | 17.0 | 0.00 | 0.00 | 0.00 | 17 | 1012.4 |
| 20260903051704 | 63 | 231 | 2.0 | 17.0 | 0.00 | 0.00 | 0.00 | 17 | 1012.4 |
| 20260903051603 | 64 | 230 | 3.0 | 17.0 | 0.00 | 0.00 | 0.00 | 16 | 1012.4 |
| 20260903051504 | 64 | 229 | 3.0 | 17.0 | 0.00 | 0.00 | 0.00 | 16 | 1012.3 |
| 20260903051403 | 64 | 225 | 5.0 | 17.0 | 0.00 | 0.00 | 0.00 | 17 | 1012.3 |
| 20260903051304 | 64 | 228 | 5.0 | 17.0 | 0.00 | 0.00 | 0.00 | 16 | 1012.3 |
| 20260903051204 | 64 | 231 | 4.0 | 17.0 | 0.00 | 0.00 | 0.00 | 16 | 1012.3 |
| 20260903051103 | 64 | 231 | 5.0 | 17.0 | 0.00 | 0.00 | 0.00 | 16 | 1012.3 |
| 20260903051003 | 63 | 231 | 7.0 | 17.0 | 0.00 | 0.00 | 0.00 | 16 | 1012.3 |
| 20260903050904 | 63 | 235 | 9.0 | 17.0 | 0.00 | 0.00 | 0.00 | 16 | 1012.3 |
| 20260903050804 | 64 | 233 | 6.0 | 15.0 | 0.00 | 0.00 | 0.00 | 17 | 1012.2 |
| 20260903050704 | 64 | 232 | 7.0 | 13.0 | 0.00 | 0.00 | 0.00 | 17 | 1012.3 |
| 20260903050604 | 64 | 234 | 6.0 | 15.0 | 0.00 | 0.00 | 0.00 | 17 | 1012.4 |
| 20260903050504 | 64 | 237 | 5.0 | 15.0 | 0.00 | 0.00 | 0.00 | 17 | 1012.4 |
| 20260903050404 | 64 | 232 | 4.0 | 18.0 | 0.00 | 0.00 | 0.00 | 17 | 1012.3 |
| 20260903050304 | 64 | 227 | 5.0 | 18.0 | 0.00 | 0.00 | 0.00 | 17 | 1012.3 |
| 20260903050204 | 64 | 223 | 4.0 | 18.0 | 0.00 | 0.00 | 0.00 | 17 | 1012.3 |
| 20260903050104 | 64 | 223 | 7.0 | 18.0 | 0.00 | 0.00 | 0.00 | 17 | 1012.3 |
| 20260903045603 | 64 | 222 | 6.0 | 18.0 | 0.00 | 0.00 | 0.00 | 16 | 1012.3 |
| 20260903045504 | 64 | 222 | 11.0 | 18.0 | 0.00 | 0.00 | 0.00 | 16 | 1012.3 |
| 20260903045404 | 64 | 225 | 12.0 | 18.0 | 0.00 | 0.00 | 0.00 | 16 | 1012.3 |
| 20260903045306 | 64 | 229 | 11.0 | 17.0 | 0.00 | 0.00 | 0.00 | 16 | 1012.3 |
| 20260903045204 | 64 | 229 | 12.0 | 17.0 | 0.00 | 0.00 | 0.00 | 16 | 1012.3 |
| 20260903045103 | 64 | 233 | 12.0 | 18.0 | 0.00 | 0.00 | 0.00 | 16 | 1012.3 |
| 20260903045004 | 64 | 235 | 10.0 | 21.0 | 0.00 | 0.00 | 0.00 | 16 | 1012.3 |
| 20260903044904 | 64 | 235 | 8.0 | 21.0 | 0.00 | 0.00 | 0.00 | 16 | 1012.3 |
| 20260903044804 | 64 | 236 | 9.0 | 21.0 | 0.00 | 0.00 | 0.00 | 16 | 1012.3 |
| 20260903044704 | 64 | 232 | 11.0 | 21.0 | 0.00 | 0.00 | 0.00 | 16 | 1012.2 |
| 20260903044603 | 64 | 227 | 12.0 | 21.0 | 0.00 | 0.00 | 0.00 | 17 | 1012.2 |
| 20260903044504 | 64 | 227 | 8.0 | 21.0 | 0.00 | 0.00 | 0.00 | 17 | 1012.3 |
| 20260903044404 | 64 | 227 | 11.0 | 21.0 | 0.00 | 0.00 | 0.00 | 17 | 1012.2 |
| 20260903044303 | 64 | 227 | 8.0 | 21.0 | 0.00 | 0.00 | 0.00 | 17 | 1012.3 |
| 20260903044204 | 64 | 228 | 8.0 | 21.0 | 0.00 | 0.00 | 0.00 | 17 | 1012.2 |
| 20260903044104 | 64 | 225 | 11.0 | 21.0 | 0.00 | 0.00 | 0.00 | 17 | 1012.2 |
| 20260903044003 | 64 | 222 | 15.0 | 21.0 | 0.00 | 0.00 | 0.00 | 17 | 1012.2 |
| 20260903043904 | 64 | 225 | 8.0 | 18.0 | 0.00 | 0.00 | 0.00 | 18 | 1012.2 |
| 20260903043804 | 64 | 230 | 11.0 | 18.0 | 0.00 | 0.00 | 0.00 | 17 | 1012.2 |
| 20260903043703 | 64 | 234 | 11.0 | 15.0 | 0.00 | 0.00 | 0.00 | 17 | 1012.2 |
| 20260903043604 | 64 | 236 | 8.0 | 16.0 | 0.00 | 0.00 | 0.00 | 17 | 1012.2 |
| 20260903043504 | 64 | 236 | 8.0 | 16.0 | 0.00 | 0.00 | 0.00 | 18 | 1012.2 |
| 20260903043403 | 64 | 236 | 7.0 | 16.0 | 0.00 | 0.00 | 0.00 | 18 | 1012.2 |
| 20260903043304 | 64 | 232 | 8.0 | 16.0 | 0.00 | 0.00 | 0.00 | 18 | 1012.2 |
| 20260903043204 | 64 | 231 | 9.0 | 17.0 | 0.00 | 0.00 | 0.00 | 18 | 1012.1 |
| 20260903043103 | 64 | 242 | 6.0 | 17.0 | 0.00 | 0.00 | 0.00 | 18 | 1012.1 |
| 20260903043004 | 64 | 256 | 8.0 | 17.0 | 0.00 | 0.00 | 0.00 | 18 | 1012.1 |
| 20260903042904 | 64 | 263 | 8.0 | 17.0 | 0.00 | 0.00 | 0.00 | 18 | 1012.1 |
| 20260903042803 | 64 | 269 | 8.0 | 17.0 | 0.00 | 0.00 | 0.00 | 18 | 1012.1 |
| 20260903042704 | 64 | 278 | 5.0 | 17.0 | 0.00 | 0.00 | 0.00 | 18 | 1012.2 |
| 20260903042604 | 64 | 289 | 11.0 | 17.0 | 0.00 | 0.00 | 0.00 | 18 | 1012.0 |
| 20260903042504 | 64 | 298 | 9.0 | 17.0 | 0.00 | 0.00 | 0.00 | 18 | 1012.1 |
| 20260903042404 | 64 | 304 | 8.0 | 17.0 | 0.00 | 0.00 | 0.00 | 19 | 1012.1 |
| 20260903042306 | 64 | 303 | 8.0 | 17.0 | 0.00 | 0.00 | 0.00 | 19 | 1012.0 |
| 20260903042204 | 64 | 302 | 10.0 | 17.0 | 0.00 | 0.00 | 0.00 | 19 | 1012.0 |
| 20260903042104 | 64 | 294 | 10.0 | 19.0 | 0.00 | 0.00 | 0.00 | 19 | 1012.1 |
| 20260903042003 | 64 | 284 | 10.0 | 19.0 | 0.00 | 0.00 | 0.00 | 19 | 1012.1 |
| 20260903041904 | 64 | 271 | 10.0 | 19.0 | 0.00 | 0.00 | 0.00 | 19 | 1012.1 |
| 20260903041804 | 64 | 270 | 10.0 | 19.0 | 0.00 | 0.00 | 0.00 | 19 | 1012.2 |
| 20260903041204 | 64 | 224 | 7.0 | 19.0 | 0.00 | 0.00 | 0.00 | 19 | 1012.1 |
| 20260903041104 | 64 | 223 | 8.0 | 19.0 | 0.00 | 0.00 | 0.00 | 19 | 1012.1 |
| 20260903041003 | 64 | 225 | 10.0 | 19.0 | 0.00 | 0.00 | 0.00 | 19 | 1012.0 |
| 20260903040903 | 64 | 234 | 11.0 | 20.0 | 0.00 | 0.00 | 0.00 | 19 | 1012.0 |
| 20260903040804 | 64 | 228 | 9.0 | 20.0 | 0.00 | 0.00 | 0.00 | 19 | 1011.8 |
| 20260903040704 | 64 | 233 | 8.0 | 20.0 | 0.00 | 0.00 | 0.00 | 19 | 1012.0 |
| 20260903040604 | 64 | 226 | 10.0 | 20.0 | 0.00 | 0.00 | 0.00 | 19 | 1011.8 |
| 20260903040504 | 64 | 227 | 13.0 | 21.0 | 0.00 | 0.00 | 0.00 | 19 | 1011.9 |
| 20260903040404 | 64 | 231 | 11.0 | 21.0 | 0.00 | 0.00 | 0.00 | 19 | 1011.9 |
| 20260903040304 | 64 | 239 | 11.0 | 21.0 | 0.00 | 0.00 | 0.00 | 18 | 1011.9 |
| 20260903040203 | 64 | 242 | 10.0 | 21.0 | 0.00 | 0.00 | 0.00 | 19 | 1011.8 |
| 20260903040104 | 64 | 242 | 10.0 | 21.0 | 0.00 | 0.00 | 0.00 | 19 | 1011.8 |
| 20260903035503 | 65 | 236 | 13.0 | 25.0 | 0.00 | 0.00 | 0.00 | 19 | 1011.6 |
| 20260903035404 | 65 | 236 | 11.0 | 25.0 | 0.00 | 0.00 | 0.00 | 18 | 1011.5 |
| 20260903035306 | 65 | 232 | 12.0 | 25.0 | 0.00 | 0.00 | 0.00 | 18 | 1011.5 |
| 20260903035203 | 65 | 230 | 11.0 | 25.0 | 0.00 | 0.00 | 0.00 | 18 | 1011.7 |
| 20260903035104 | 65 | 230 | 11.0 | 26.0 | 0.00 | 0.00 | 0.00 | 18 | 1011.6 |
| 20260903035004 | 65 | 225 | 13.0 | 26.0 | 0.00 | 0.00 | 0.00 | 18 | 1011.6 |
| 20260903034904 | 65 | 230 | 15.0 | 26.0 | 0.00 | 0.00 | 0.00 | 19 | 1011.6 |
| 20260903034804 | 65 | 227 | 13.0 | 26.0 | 0.00 | 0.00 | 0.00 | 19 | 1011.6 |
| 20260903034703 | 65 | 227 | 13.0 | 26.0 | 0.00 | 0.00 | 0.00 | 19 | 1011.7 |
| 20260903034604 | 65 | 234 | 17.0 | 26.0 | 0.00 | 0.00 | 0.00 | 19 | 1011.7 |
| 20260903034503 | 65 | 240 | 12.0 | 26.0 | 0.00 | 0.00 | 0.00 | 19 | 1011.6 |
| 20260903034403 | 65 | 237 | 11.0 | 26.0 | 0.00 | 0.00 | 0.00 | 19 | 1011.7 |
| 20260903034304 | 64 | 236 | 11.0 | 26.0 | 0.00 | 0.00 | 0.00 | 19 | 1011.6 |
| 20260903034204 | 64 | 234 | 11.0 | 26.0 | 0.00 | 0.00 | 0.00 | 19 | 1011.7 |
| 20260903034103 | 65 | 234 | 15.0 | 26.0 | 0.00 | 0.00 | 0.00 | 19 | 1011.5 |
| 20260903034004 | 65 | 237 | 15.0 | 21.0 | 0.00 | 0.00 | 0.00 | 19 | 1011.4 |
| 20260903033904 | 65 | 234 | 11.0 | 19.0 | 0.00 | 0.00 | 0.00 | 19 | 1011.6 |
| 20260903033803 | 65 | 246 | 10.0 | 19.0 | 0.00 | 0.00 | 0.00 | 19 | 1011.7 |
| 20260903033704 | 65 | 255 | 10.0 | 19.0 | 0.00 | 0.00 | 0.00 | 19 | 1011.6 |
| 20260903033604 | 65 | 245 | 14.0 | 19.0 | 0.00 | 0.00 | 0.00 | 19 | 1011.6 |
| 20260903033503 | 65 | 236 | 11.0 | 18.0 | 0.00 | 0.00 | 0.00 | 19 | 1011.7 |
| 20260903033404 | 65 | 246 | 12.0 | 18.0 | 0.00 | 0.00 | 0.00 | 19 | 1011.7 |
| 20260903033304 | 65 | 248 | 14.0 | 18.0 | 0.00 | 0.00 | 0.00 | 19 | 1011.7 |
| 20260903033206 | 65 | 252 | 12.0 | 17.0 | 0.00 | 0.00 | 0.00 | 20 | 1011.7 |
| 20260903033104 | 65 | 257 | 11.0 | 17.0 | 0.00 | 0.00 | 0.00 | 20 | 1011.7 |
| 20260903033004 | 65 | 259 | 11.0 | 17.0 | 0.00 | 0.00 | 0.00 | 20 | 1011.8 |
| 20260903032904 | 65 | 251 | 11.0 | 17.0 | 0.00 | 0.00 | 0.00 | 20 | 1011.8 |
| 20260903032804 | 65 | 245 | 11.0 | 17.0 | 0.00 | 0.00 | 0.00 | 20 | 1011.8 |
| 20260903032703 | 65 | 241 | 11.0 | 17.0 | 0.00 | 0.00 | 0.00 | 20 | 1011.5 |
| 20260903032604 | 65 | 244 | 13.0 | 17.0 | 0.00 | 0.00 | 0.00 | 20 | 1011.8 |
| 20260903032504 | 65 | 246 | 9.0 | 17.0 | 0.00 | 0.00 | 0.00 | 20 | 1011.8 |
| 20260903032403 | 65 | 238 | 10.0 | 17.0 | 0.00 | 0.00 | 0.00 | 20 | 1011.7 |
| 20260903031704 | 65 | 241 | 9.0 | 21.0 | 0.00 | 0.00 | 0.00 | 21 | 1011.8 |
| 20260903031604 | 65 | 239 | 9.0 | 21.0 | 0.00 | 0.00 | 0.00 | 21 | 1011.7 |
| 20260903031504 | 65 | 239 | 9.0 | 21.0 | 0.00 | 0.00 | 0.00 | 21 | 1011.7 |
| 20260903031403 | 65 | 240 | 11.0 | 21.0 | 0.00 | 0.00 | 0.00 | 20 | 1011.7 |
| 20260903031204 | 65 | 237 | 10.0 | 21.0 | 0.00 | 0.00 | 0.00 | 20 | 1011.7 |
| 20260903031104 | 65 | 236 | 8.0 | 21.0 | 0.00 | 0.00 | 0.00 | 20 | 1011.7 |
| 20260903031004 | 65 | 234 | 10.0 | 21.0 | 0.00 | 0.00 | 0.00 | 20 | 1011.7 |
| 20260903030904 | 65 | 231 | 11.0 | 21.0 | 0.00 | 0.00 | 0.00 | 21 | 1011.8 |
| 20260903030804 | 65 | 230 | 11.0 | 21.0 | 0.00 | 0.00 | 0.00 | 20 | 1011.8 |
| 20260903030204 | 65 | 225 | 7.0 | 11.0 | 0.00 | 0.00 | 0.00 | 21 | 1011.6 |
| 20260903030104 | 65 | 225 | 7.0 | 11.0 | 0.00 | 0.00 | 0.00 | 21 | 1011.6 |
| 20260903030004 | 65 | 225 | 7.0 | 11.0 | 0.00 | 0.00 | 0.00 | 21 | 1011.7 |
| 20260903025904 | 67 | 223 | 7.0 | 15.0 | 0.00 | 0.00 | 0.00 | 21 | 1011.6 |
| 20260903025804 | 65 | 221 | 7.0 | 15.0 | 0.00 | 0.00 | 0.00 | 20 | 1011.7 |
| 20260903025704 | 65 | 221 | 7.0 | 15.0 | 0.00 | 0.00 | 0.00 | 20 | 1011.7 |
| 20260903025604 | 66 | 226 | 7.0 | 15.0 | 0.00 | 0.00 | 0.00 | 20 | 1011.6 |
| 20260903025504 | 66 | 226 | 4.0 | 15.0 | 0.00 | 0.00 | 0.00 | 20 | 1011.6 |
| 20260903025403 | 66 | 228 | 4.0 | 15.0 | 0.00 | 0.00 | 0.00 | 20 | 1011.6 |
| 20260903025306 | 66 | 230 | 4.0 | 15.0 | 0.00 | 0.00 | 0.00 | 20 | 1011.6 |
| 20260903025204 | 66 | 230 | 5.0 | 15.0 | 0.00 | 0.00 | 0.00 | 20 | 1011.5 |
| 20260903025103 | 66 | 230 | 8.0 | 15.0 | 0.00 | 0.00 | 0.00 | 19 | 1011.8 |
| 20260903025004 | 66 | 227 | 8.0 | 15.0 | 0.00 | 0.00 | 0.00 | 19 | 1011.7 |
| 20260903024904 | 67 | 226 | 10.0 | 15.0 | 0.00 | 0.00 | 0.00 | 19 | 1011.7 |
| 20260903024804 | 67 | 226 | 8.0 | 14.0 | 0.00 | 0.00 | 0.00 | 19 | 1011.7 |
| 20260903024704 | 67 | 226 | 6.0 | 14.0 | 0.00 | 0.00 | 0.00 | 18 | 1011.7 |
| 20260903024603 | 67 | 222 | 8.0 | 14.0 | 0.00 | 0.00 | 0.00 | 18 | 1011.5 |
| 20260903024504 | 67 | 226 | 8.0 | 14.0 | 0.00 | 0.00 | 0.00 | 18 | 1011.6 |
| 20260903024403 | 67 | 226 | 8.0 | 15.0 | 0.00 | 0.00 | 0.00 | 18 | 1011.7 |
| 20260903024303 | 67 | 230 | 8.0 | 15.0 | 0.00 | 0.00 | 0.00 | 18 | 1011.5 |
| 20260903024204 | 67 | 233 | 6.0 | 15.0 | 0.00 | 0.00 | 0.00 | 17 | 1011.6 |
| 20260903024104 | 67 | 232 | 7.0 | 15.0 | 0.00 | 0.00 | 0.00 | 17 | 1011.5 |
| 20260903024003 | 67 | 235 | 8.0 | 15.0 | 0.00 | 0.00 | 0.00 | 17 | 1011.5 |
| 20260903023904 | 67 | 239 | 8.0 | 16.0 | 0.00 | 0.00 | 0.00 | 17 | 1011.5 |
| 20260903023804 | 67 | 245 | 11.0 | 18.0 | 0.00 | 0.00 | 0.00 | 17 | 1011.5 |
| 20260903023704 | 67 | 245 | 10.0 | 18.0 | 0.00 | 0.00 | 0.00 | 17 | 1011.6 |
| 20260903023604 | 67 | 245 | 8.0 | 18.0 | 0.00 | 0.00 | 0.00 | 17 | 1011.6 |
| 20260903023504 | 67 | 240 | 9.0 | 18.0 | 0.00 | 0.00 | 0.00 | 17 | 1011.4 |
| 20260903023404 | 67 | 239 | 9.0 | 18.0 | 0.00 | 0.00 | 0.00 | 17 | 1011.6 |
| 20260903023304 | 67 | 236 | 10.0 | 18.0 | 0.00 | 0.00 | 0.00 | 17 | 1011.5 |
| 20260903023204 | 67 | 234 | 12.0 | 18.0 | 0.00 | 0.00 | 0.00 | 17 | 1011.4 |
| 20260903023103 | 67 | 237 | 10.0 | 18.0 | 0.00 | 0.00 | 0.00 | 17 | 1011.5 |
| 20260903023004 | 67 | 244 | 10.0 | 18.0 | 0.00 | 0.00 | 0.00 | 17 | 1011.5 |
| 20260903022904 | 67 | 243 | 12.0 | 18.0 | 0.00 | 0.00 | 0.00 | 17 | 1011.6 |
| 20260903022804 | 67 | 244 | 14.0 | 18.0 | 0.00 | 0.00 | 0.00 | 17 | 1011.5 |
| 20260903022704 | 67 | 247 | 10.0 | 17.0 | 0.00 | 0.00 | 0.00 | 16 | 1011.4 |
| 20260903022603 | 67 | 253 | 11.0 | 17.0 | 0.00 | 0.00 | 0.00 | 16 | 1011.4 |
| 20260903022503 | 67 | 263 | 10.0 | 17.0 | 0.00 | 0.00 | 0.00 | 16 | 1011.6 |
| 20260903022404 | 67 | 270 | 10.0 | 17.0 | 0.00 | 0.00 | 0.00 | 16 | 1011.5 |
| 20260903021704 | 68 | 263 | 8.0 | 17.0 | 0.00 | 0.00 | 0.00 | 14 | 1011.4 |
| 20260903021603 | 68 | 263 | 8.0 | 17.0 | 0.00 | 0.00 | 0.00 | 14 | 1011.4 |
| 20260903021503 | 68 | 258 | 8.0 | 17.0 | 0.00 | 0.00 | 0.00 | 14 | 1011.5 |
| 20260903021404 | 68 | 251 | 6.0 | 17.0 | 0.00 | 0.00 | 0.00 | 14 | 1011.4 |
| 20260903021304 | 68 | 251 | 11.0 | 17.0 | 0.00 | 0.00 | 0.00 | 14 | 1011.4 |
| 20260903021203 | 68 | 248 | 11.0 | 17.0 | 0.00 | 0.00 | 0.00 | 14 | 1011.4 |
| 20260903021004 | 69 | 260 | 11.0 | 15.0 | 0.00 | 0.00 | 0.00 | 13 | 1011.4 |
| 20260903020903 | 69 | 258 | 8.0 | 15.0 | 0.00 | 0.00 | 0.00 | 13 | 1011.4 |
| 20260903020804 | 69 | 258 | 8.0 | 15.0 | 0.00 | 0.00 | 0.00 | 13 | 1011.3 |
| 20260903020704 | 69 | 257 | 10.0 | 15.0 | 0.00 | 0.00 | 0.00 | 13 | 1011.5 |
| 20260903020604 | 69 | 264 | 9.0 | 17.0 | 0.00 | 0.00 | 0.00 | 13 | 1011.5 |
| 20260903020504 | 69 | 259 | 8.0 | 17.0 | 0.00 | 0.00 | 0.00 | 13 | 1011.4 |
| 20260903020403 | 69 | 260 | 10.0 | 17.0 | 0.00 | 0.00 | 0.00 | 13 | 1011.3 |
| 20260903020304 | 69 | 258 | 5.0 | 17.0 | 0.00 | 0.00 | 0.00 | 14 | 1011.4 |
| 20260903020204 | 69 | 253 | 7.0 | 17.0 | 0.00 | 0.00 | 0.00 | 13 | 1011.3 |
| 20260903020103 | 70 | 256 | 9.0 | 17.0 | 0.00 | 0.00 | 0.00 | 13 | 1011.4 |
| 20260903020004 | 70 | 243 | 9.0 | 17.0 | 0.00 | 0.00 | 0.00 | 13 | 1011.4 |
| 20260903015904 | 70 | 247 | 11.0 | 17.0 | 0.00 | 0.00 | 0.00 | 12 | 1011.4 |
| 20260903015804 | 70 | 259 | 7.0 | 17.0 | 0.00 | 0.00 | 0.00 | 12 | 1011.3 |
| 20260903015704 | 70 | 259 | 10.0 | 17.0 | 0.00 | 0.00 | 0.00 | 11 | 1011.5 |
| 20260903015604 | 70 | 250 | 13.0 | 17.0 | 0.00 | 0.00 | 0.00 | 11 | 1011.4 |
| 20260903015504 | 71 | 247 | 10.0 | 15.0 | 0.00 | 0.00 | 0.00 | 12 | 1011.4 |
| 20260903015403 | 71 | 246 | 8.0 | 15.0 | 0.00 | 0.00 | 0.00 | 12 | 1011.4 |
| 20260903015306 | 71 | 246 | 7.0 | 15.0 | 0.00 | 0.00 | 0.00 | 12 | 1011.3 |
| 20260903015204 | 71 | 243 | 8.0 | 15.0 | 0.00 | 0.00 | 0.00 | 11 | 1011.4 |
| 20260903015103 | 71 | 241 | 6.0 | 20.0 | 0.00 | 0.00 | 0.00 | 11 | 1011.4 |
| 20260903015004 | 71 | 244 | 7.0 | 20.0 | 0.00 | 0.00 | 0.00 | 10 | 1011.3 |
| 20260903014904 | 71 | 243 | 8.0 | 20.0 | 0.00 | 0.00 | 0.00 | 10 | 1011.4 |
| 20260903014803 | 71 | 237 | 10.0 | 20.0 | 0.00 | 0.00 | 0.00 | 10 | 1011.4 |
| 20260903014704 | 72 | 233 | 8.0 | 20.0 | 0.00 | 0.00 | 0.00 | 10 | 1011.4 |
| 20260903014604 | 72 | 233 | 10.0 | 20.0 | 0.00 | 0.00 | 0.00 | 10 | 1011.3 |
| 20260903014504 | 72 | 233 | 10.0 | 20.0 | 0.00 | 0.00 | 0.00 | 10 | 1011.3 |
| 20260903014404 | 72 | 240 | 8.0 | 20.0 | 0.00 | 0.00 | 0.00 | 10 | 1011.2 |
| 20260903014304 | 72 | 243 | 11.0 | 20.0 | 0.00 | 0.00 | 0.00 | 10 | 1011.3 |
| 20260903013804 | 72 | 233 | 12.0 | 17.0 | 0.00 | 0.00 | 0.00 | 10 | 1011.3 |
| 20260903013703 | 72 | 238 | 11.0 | 19.0 | 0.00 | 0.00 | 0.00 | 10 | 1011.4 |
| 20260903013604 | 72 | 238 | 10.0 | 21.0 | 0.00 | 0.00 | 0.00 | 10 | 1011.4 |
| 20260903013504 | 72 | 237 | 13.0 | 21.0 | 0.00 | 0.00 | 0.00 | 10 | 1011.3 |
| 20260903013404 | 73 | 233 | 8.0 | 21.0 | 0.00 | 0.00 | 0.00 | 10 | 1011.3 |
| 20260903013303 | 73 | 233 | 6.0 | 21.0 | 0.00 | 0.00 | 0.00 | 10 | 1011.3 |
| 20260903013105 | 73 | 237 | 12.0 | 21.0 | 0.00 | 0.00 | 0.00 | 10 | 1011.2 |
| 20260903013004 | 73 | 233 | 12.0 | 21.0 | 0.00 | 0.00 | 0.00 | 10 | 1011.3 |
| 20260903012904 | 73 | 233 | 9.0 | 21.0 | 0.00 | 0.00 | 0.00 | 10 | 1011.3 |
| 20260903012803 | 73 | 239 | 13.0 | 21.0 | 0.00 | 0.00 | 0.00 | 10 | 1011.2 |
| 20260903012704 | 73 | 239 | 13.0 | 21.0 | 0.00 | 0.00 | 0.00 | 10 | 1011.3 |
| 20260903012604 | 73 | 242 | 15.0 | 21.0 | 0.00 | 0.00 | 0.00 | 10 | 1011.3 |
| 20260903012503 | 73 | 245 | 13.0 | 20.0 | 0.00 | 0.00 | 0.00 | 10 | 1011.2 |
| 20260903012404 | 73 | 239 | 8.0 | 20.0 | 0.00 | 0.00 | 0.00 | 10 | 1011.1 |
| 20260903012306 | 73 | 237 | 8.0 | 20.0 | 0.00 | 0.00 | 0.00 | 10 | 1011.4 |
| 20260903012203 | 73 | 237 | 10.0 | 20.0 | 0.00 | 0.00 | 0.00 | 10 | 1011.3 |
| 20260903012104 | 73 | 238 | 11.0 | 20.0 | 0.00 | 0.00 | 0.00 | 10 | 1011.3 |
| 20260903012003 | 73 | 242 | 10.0 | 20.0 | 0.00 | 0.00 | 0.00 | 10 | 1011.3 |
| 20260903011903 | 74 | 247 | 12.0 | 20.0 | 0.00 | 0.00 | 0.00 | 10 | 1011.2 |
| 20260903011804 | 74 | 246 | 12.0 | 20.0 | 0.00 | 0.00 | 0.00 | 10 | 1011.3 |
| 20260903011703 | 74 | 243 | 10.0 | 18.0 | 0.00 | 0.00 | 0.00 | 10 | 1011.2 |
| 20260903011603 | 74 | 245 | 8.0 | 18.0 | 0.00 | 0.00 | 0.00 | 10 | 1011.3 |
| 20260903011504 | 74 | 244 | 8.0 | 18.0 | 0.00 | 0.00 | 0.00 | 10 | 1011.3 |
| 20260903011403 | 74 | 247 | 6.0 | 18.0 | 0.00 | 0.00 | 0.00 | 10 | 1011.2 |
| 20260903011303 | 74 | 252 | 10.0 | 18.0 | 0.00 | 0.00 | 0.00 | 10 | 1011.2 |
| 20260903011204 | 74 | 252 | 11.0 | 19.0 | 0.00 | 0.00 | 0.00 | 10 | 1011.3 |
| 20260903011104 | 74 | 252 | 14.0 | 19.0 | 0.00 | 0.00 | 0.00 | 10 | 1011.3 |
| 20260903011003 | 74 | 253 | 11.0 | 19.0 | 0.00 | 0.00 | 0.00 | 10 | 1011.1 |
| 20260903010904 | 74 | 257 | 11.0 | 19.0 | 0.00 | 0.00 | 0.00 | 10 | 1011.2 |
| 20260903010804 | 75 | 258 | 11.0 | 19.0 | 0.00 | 0.00 | 0.00 | 10 | 1011.2 |
| 20260903010703 | 75 | 257 | 8.0 | 19.0 | 0.00 | 0.00 | 0.00 | 10 | 1011.3 |
| 20260903010604 | 75 | 250 | 8.0 | 19.0 | 0.00 | 0.00 | 0.00 | 10 | 1011.3 |
| 20260903010504 | 75 | 250 | 10.0 | 19.0 | 0.00 | 0.00 | 0.00 | 10 | 1011.3 |
| 20260903010403 | 75 | 246 | 13.0 | 19.0 | 0.00 | 0.00 | 0.00 | 10 | 1011.3 |
| 20260903010304 | 75 | 243 | 12.0 | 19.0 | 0.00 | 0.00 | 0.00 | 10 | 1011.3 |
| 20260903005804 | 74 | 233 | 8.0 | 20.0 | 0.00 | 0.00 | 0.00 | 10 | 1011.3 |
| 20260903005703 | 74 | 235 | 10.0 | 20.0 | 0.00 | 0.00 | 0.00 | 10 | 1011.3 |
| 20260903005603 | 74 | 235 | 10.0 | 20.0 | 0.00 | 0.00 | 0.00 | 10 | 1011.3 |
| 20260903005504 | 74 | 235 | 11.0 | 20.0 | 0.00 | 0.00 | 0.00 | 10 | 1011.3 |
| 20260903005403 | 74 | 235 | 9.0 | 20.0 | 0.00 | 0.00 | 0.00 | 10 | 1011.3 |
| 20260903005306 | 74 | 232 | 8.0 | 20.0 | 0.00 | 0.00 | 0.00 | 10 | 1011.2 |
| 20260903005204 | 75 | 234 | 12.0 | 20.0 | 0.00 | 0.00 | 0.00 | 10 | 1011.3 |
| 20260903005104 | 75 | 232 | 11.0 | 19.0 | 0.00 | 0.00 | 0.00 | 10 | 1011.2 |
| 20260903005003 | 75 | 223 | 14.0 | 18.0 | 0.00 | 0.00 | 0.00 | 10 | 1011.2 |
| 20260903004903 | 75 | 222 | 10.0 | 18.0 | 0.00 | 0.00 | 0.00 | 10 | 1011.2 |
| 20260903004803 | 76 | 222 | 12.0 | 18.0 | 0.00 | 0.00 | 0.00 | 10 | 1011.2 |
| 20260903004403 | 76 | 233 | 8.0 | 15.0 | 0.00 | 0.00 | 0.00 | 10 | 1011.2 |
| 20260903004304 | 76 | 233 | 7.0 | 15.0 | 0.00 | 0.00 | 0.00 | 10 | 1011.2 |
| 20260903004204 | 76 | 229 | 8.0 | 15.0 | 0.00 | 0.00 | 0.00 | 10 | 1011.2 |
| 20260903004104 | 76 | 231 | 8.0 | 15.0 | 0.00 | 0.00 | 0.00 | 10 | 1011.3 |
| 20260903004004 | 76 | 235 | 6.0 | 17.0 | 0.00 | 0.00 | 0.00 | 10 | 1011.3 |
| 20260903003903 | 76 | 234 | 10.0 | 17.0 | 0.00 | 0.00 | 0.00 | 10 | 1011.3 |
| 20260903003803 | 76 | 232 | 9.0 | 17.0 | 0.00 | 0.00 | 0.00 | 10 | 1011.3 |
| 20260903003704 | 76 | 228 | 8.0 | 17.0 | 0.00 | 0.00 | 0.00 | 10 | 1011.3 |
| 20260903003604 | 75 | 222 | 8.0 | 17.0 | 0.00 | 0.00 | 0.00 | 10 | 1011.1 |
| 20260903003503 | 75 | 223 | 8.0 | 17.0 | 0.00 | 0.00 | 0.00 | 10 | 1011.3 |
| 20260903003404 | 75 | 228 | 8.0 | 17.0 | 0.00 | 0.00 | 0.00 | 10 | 1011.3 |
| 20260903003003 | 76 | 233 | 14.0 | 17.0 | 0.00 | 0.00 | 0.00 | 10 | 1011.3 |
| 20260903002903 | 76 | 239 | 9.0 | 17.0 | 0.00 | 0.00 | 0.00 | 10 | 1011.3 |
| 20260903002804 | 76 | 248 | 8.0 | 17.0 | 0.00 | 0.00 | 0.00 | 10 | 1011.3 |
| 20260903002703 | 76 | 251 | 8.0 | 17.0 | 0.00 | 0.00 | 0.00 | 10 | 1011.3 |
| 20260903002603 | 76 | 253 | 11.0 | 17.0 | 0.00 | 0.00 | 0.00 | 10 | 1011.3 |
| 20260903002504 | 76 | 249 | 10.0 | 17.0 | 0.00 | 0.00 | 0.00 | 10 | 1011.4 |
| 20260903002404 | 77 | 244 | 9.0 | 17.0 | 0.00 | 0.00 | 0.00 | 10 | 1011.3 |
| 20260903002306 | 77 | 248 | 10.0 | 17.0 | 0.00 | 0.00 | 0.00 | 10 | 1011.3 |
| 20260903002204 | 77 | 251 | 9.0 | 17.0 | 0.00 | 0.00 | 0.00 | 10 | 1011.3 |
| 20260903002103 | 76 | 256 | 9.0 | 17.0 | 0.00 | 0.00 | 0.00 | 10 | 1011.3 |
| 20260903002004 | 76 | 254 | 10.0 | 17.0 | 0.00 | 0.00 | 0.00 | 10 | 1011.3 |
| 20260903001904 | 76 | 243 | 9.0 | 17.0 | 0.00 | 0.00 | 0.00 | 10 | 1011.2 |
| 20260903001303 | 75 | 228 | 10.0 | 21.0 | 0.00 | 0.00 | 0.00 | 10 | 1011.3 |
| 20260903001204 | 75 | 233 | 5.0 | 21.0 | 0.00 | 0.00 | 0.00 | 10 | 1011.2 |
| 20260903001103 | 76 | 233 | 12.0 | 21.0 | 0.00 | 0.00 | 0.00 | 10 | 1011.3 |
| 20260903001003 | 76 | 233 | 13.0 | 21.0 | 0.00 | 0.00 | 0.00 | 10 | 1011.3 |
| 20260903000903 | 76 | 236 | 11.0 | 21.0 | 0.00 | 0.00 | 0.00 | 10 | 1011.3 |
| 20260903000803 | 76 | 237 | 9.0 | 21.0 | 0.00 | 0.00 | 0.00 | 10 | 1011.2 |
| 20260903000704 | 75 | 239 | 8.0 | 21.0 | 0.00 | 0.00 | 0.00 | 10 | 1011.3 |
| 20260903000603 | 75 | 239 | 7.0 | 21.0 | 0.00 | 0.00 | 0.00 | 10 | 1011.3 |
| 20260903000504 | 76 | 239 | 11.0 | 21.0 | 0.00 | 0.00 | 0.00 | 10 | 1011.3 |
| 20260903000403 | 76 | 240 | 16.0 | 21.0 | 0.00 | 0.00 | 0.00 | 10 | 1011.2 |
| 20260903000304 | 76 | 240 | 11.0 | 20.0 | 0.00 | 0.00 | 0.00 | 10 | 1011.2 |
| 20260903000103 | 76 | 234 | 11.0 | 19.0 | 0.00 | 0.00 | 0.00 | 10 | 1011.3 |
| 20260903000003 | 76 | 234 | 11.0 | 19.0 | 0.00 | 0.00 | 0.00 | 10 | 1011.4 |
| 20260902235904 | 76 | 236 | 11.0 | 19.0 | 0.00 | 0.00 | 0.00 | 10 | 1011.2 |
| 20260902235804 | 76 | 241 | 10.0 | 19.0 | 0.00 | 0.00 | 0.00 | 10 | 1011.3 |
| 20260902235703 | 76 | 239 | 8.0 | 19.0 | 0.00 | 0.00 | 0.00 | 10 | 1011.2 |
| 20260902235603 | 76 | 239 | 6.0 | 19.0 | 0.00 | 0.00 | 0.00 | 10 | 1011.3 |
| 20260902235504 | 76 | 239 | 13.0 | 19.0 | 0.00 | 0.00 | 0.00 | 10 | 1011.2 |
| 20260902235404 | 76 | 239 | 11.0 | 19.0 | 0.00 | 0.00 | 0.00 | 10 | 1011.3 |
| 20260902235305 | 76 | 240 | 13.0 | 19.0 | 0.00 | 0.00 | 0.00 | 10 | 1011.3 |
| 20260902235204 | 76 | 237 | 11.0 | 17.0 | 0.00 | 0.00 | 0.00 | 10 | 1011.2 |
| 20260902235104 | 76 | 233 | 9.0 | 17.0 | 0.00 | 0.00 | 0.00 | 10 | 1011.3 |
| 20260902235003 | 76 | 237 | 11.0 | 17.0 | 0.00 | 0.00 | 0.00 | 10 | 1011.3 |
| 20260902234904 | 76 | 236 | 8.0 | 17.0 | 0.00 | 0.00 | 0.00 | 10 | 1011.3 |
| 20260902234804 | 76 | 237 | 11.0 | 21.0 | 0.00 | 0.00 | 0.00 | 10 | 1011.3 |
| 20260902234703 | 76 | 242 | 11.0 | 21.0 | 0.00 | 0.00 | 0.00 | 10 | 1011.3 |
| 20260902234604 | 76 | 246 | 11.0 | 21.0 | 0.00 | 0.00 | 0.00 | 10 | 1011.2 |
| 20260902234504 | 76 | 247 | 11.0 | 21.0 | 0.00 | 0.00 | 0.00 | 10 | 1011.3 |
| 20260902234003 | 76 | 251 | 4.0 | 21.0 | 0.00 | 0.00 | 0.00 | 10 | 1011.3 |
| 20260902233904 | 76 | 250 | 11.0 | 21.0 | 0.00 | 0.00 | 0.00 | 10 | 1011.3 |
| 20260902233804 | 76 | 254 | 15.0 | 21.0 | 0.00 | 0.00 | 0.00 | 10 | 1011.3 |
| 20260902233703 | 76 | 260 | 8.0 | 17.0 | 0.00 | 0.00 | 0.00 | 10 | 1011.3 |
| 20260902233604 | 76 | 267 | 10.0 | 17.0 | 0.00 | 0.00 | 0.00 | 10 | 1011.3 |
| 20260902233503 | 76 | 268 | 8.0 | 17.0 | 0.00 | 0.00 | 0.00 | 10 | 1011.3 |
| 20260902233404 | 76 | 264 | 5.0 | 17.0 | 0.00 | 0.00 | 0.00 | 10 | 1011.3 |
| 20260902233303 | 76 | 258 | 8.0 | 17.0 | 0.00 | 0.00 | 0.00 | 10 | 1011.3 |
| 20260902233203 | 76 | 257 | 11.0 | 17.0 | 0.00 | 0.00 | 0.00 | 10 | 1011.3 |
| 20260902233104 | 76 | 257 | 10.0 | 17.0 | 0.00 | 0.00 | 0.00 | 10 | 1011.3 |
| 20260902233004 | 76 | 264 | 10.0 | 17.0 | 0.00 | 0.00 | 0.00 | 10 | 1011.4 |
| 20260902232903 | 76 | 261 | 13.0 | 17.0 | 0.00 | 0.00 | 0.00 | 10 | 1011.2 |
| 20260902232803 | 76 | 245 | 9.0 | 17.0 | 0.00 | 0.00 | 0.00 | 10 | 1011.2 |
| 20260902232703 | 76 | 237 | 11.0 | 17.0 | 0.00 | 0.00 | 0.00 | 10 | 1011.2 |
| 20260902232604 | 76 | 226 | 5.0 | 17.0 | 0.00 | 0.00 | 0.00 | 10 | 1011.1 |
| 20260902232503 | 76 | 226 | 4.0 | 17.0 | 0.00 | 0.00 | 0.00 | 10 | 1011.3 |
| 20260902232403 | 76 | 227 | 8.0 | 20.0 | 0.00 | 0.00 | 0.00 | 10 | 1011.2 |
| 20260902232306 | 76 | 228 | 11.0 | 20.0 | 0.00 | 0.00 | 0.00 | 10 | 1011.3 |
| 20260902232204 | 76 | 244 | 11.0 | 20.0 | 0.00 | 0.00 | 0.00 | 10 | 1011.3 |
| 20260902231706 | 76 | 220 | 8.0 | 21.0 | 0.00 | 0.00 | 0.00 | 10 | 1011.2 |
| 20260902231006 | 76 | 234 | 14.0 | 21.0 | 0.00 | 0.00 | 0.00 | 10 | 1011.2 |
| 20260902230906 | 76 | 230 | 13.0 | 20.0 | 0.00 | 0.00 | 0.00 | 10 | 1011.3 |
| 20260902230806 | 76 | 229 | 10.0 | 20.0 | 0.00 | 0.00 | 0.00 | 10 | 1011.3 |
| 20260902230706 | 77 | 231 | 8.0 | 20.0 | 0.00 | 0.00 | 0.00 | 10 | 1011.3 |
| 20260902230606 | 76 | 230 | 11.0 | 20.0 | 0.00 | 0.00 | 0.00 | 10 | 1011.3 |
| 20260902230506 | 76 | 230 | 13.0 | 20.0 | 0.00 | 0.00 | 0.00 | 10 | 1011.4 |
| 20260902225906 | 78 | 233 | 11.0 | 18.0 | 0.00 | 0.00 | 0.00 | 10 | 1011.4 |
| 20260902225806 | 77 | 229 | 10.0 | 18.0 | 0.00 | 0.00 | 0.00 | 10 | 1011.4 |
| 20260902225706 | 77 | 225 | 9.0 | 18.0 | 0.00 | 0.00 | 0.00 | 10 | 1011.5 |
| 20260902225606 | 77 | 230 | 9.0 | 18.0 | 0.00 | 0.00 | 0.00 | 10 | 1011.5 |
| 20260902225506 | 77 | 237 | 7.0 | 18.0 | 0.00 | 0.00 | 0.00 | 10 | 1011.4 |
| 20260902225406 | 77 | 238 | 5.0 | 18.0 | 0.00 | 0.00 | 0.00 | 10 | 1011.4 |
| 20260902225306 | 77 | 238 | 8.0 | 18.0 | 0.00 | 0.00 | 0.00 | 10 | 1011.5 |
| 20260902225206 | 77 | 230 | 8.0 | 18.0 | 0.00 | 0.00 | 0.00 | 10 | 1011.4 |
| 20260902225106 | 78 | 231 | 9.0 | 18.0 | 0.00 | 0.00 | 0.00 | 10 | 1011.5 |
| 20260902225007 | 78 | 232 | 11.0 | 18.0 | 0.00 | 0.00 | 0.00 | 10 | 1011.6 |
| 20260902224906 | 78 | 231 | 12.0 | 18.0 | 0.00 | 0.00 | 0.00 | 10 | 1011.6 |
| 20260902224806 | 78 | 239 | 9.0 | 19.0 | 0.00 | 0.00 | 0.00 | 10 | 1011.6 |
| 20260902224705 | 78 | 247 | 11.0 | 19.0 | 0.00 | 0.00 | 0.00 | 10 | 1011.5 |
| 20260902224606 | 77 | 245 | 11.0 | 23.0 | 0.00 | 0.00 | 0.00 | 10 | 1011.4 |
| 20260902224506 | 77 | 237 | 11.0 | 23.0 | 0.00 | 0.00 | 0.00 | 10 | 1011.5 |
| 20260902224206 | 77 | 249 | 10.0 | 23.0 | 0.00 | 0.00 | 0.00 | 10 | 1011.5 |
| 20260902224106 | 77 | 253 | 4.0 | 23.0 | 0.00 | 0.00 | 0.00 | 10 | 1011.5 |
| 20260902224006 | 78 | 259 | 11.0 | 23.0 | 0.00 | 0.00 | 0.00 | 10 | 1011.5 |
| 20260902223907 | 78 | 267 | 12.0 | 23.0 | 0.00 | 0.00 | 0.00 | 10 | 1011.6 |
| 20260902223806 | 78 | 268 | 8.0 | 23.0 | 0.00 | 0.00 | 0.00 | 10 | 1011.6 |
| 20260902223707 | 78 | 264 | 6.0 | 23.0 | 0.00 | 0.00 | 0.00 | 10 | 1011.5 |
| 20260902223606 | 78 | 259 | 11.0 | 20.0 | 0.00 | 0.00 | 0.00 | 10 | 1011.6 |
| 20260902223506 | 78 | 258 | 8.0 | 20.0 | 0.00 | 0.00 | 0.00 | 10 | 1011.5 |
| 20260902223406 | 78 | 255 | 14.0 | 20.0 | 0.00 | 0.00 | 0.00 | 10 | 1011.6 |
| 20260902223305 | 78 | 263 | 9.0 | 20.0 | 0.00 | 0.00 | 0.00 | 10 | 1011.6 |
| 20260902223206 | 78 | 257 | 12.0 | 20.0 | 0.00 | 0.00 | 0.00 | 10 | 1011.5 |
| 20260902223106 | 78 | 255 | 5.0 | 18.0 | 0.00 | 0.00 | 0.00 | 10 | 1011.6 |
| 20260902223006 | 78 | 240 | 5.0 | 18.0 | 0.00 | 0.00 | 0.00 | 10 | 1011.6 |
| 20260902222906 | 78 | 228 | 9.0 | 18.0 | 0.00 | 0.00 | 0.00 | 10 | 1011.6 |
| 20260902222806 | 78 | 226 | 9.0 | 18.0 | 0.00 | 0.00 | 0.00 | 10 | 1011.5 |
| 20260902222706 | 78 | 220 | 13.0 | 22.0 | 0.00 | 0.00 | 0.00 | 10 | 1011.6 |
| 20260902222606 | 79 | 228 | 10.0 | 22.0 | 0.00 | 0.00 | 0.00 | 10 | 1011.6 |
| 20260902222506 | 78 | 228 | 8.0 | 22.0 | 0.00 | 0.00 | 0.00 | 10 | 1011.5 |
| 20260902222406 | 78 | 232 | 3.0 | 22.0 | 0.00 | 0.00 | 0.00 | 10 | 1011.5 |
| 20260902222306 | 78 | 232 | 3.0 | 22.0 | 0.00 | 0.00 | 0.00 | 10 | 1011.6 |
| 20260902222206 | 78 | 231 | 6.0 | 22.0 | 0.00 | 0.00 | 0.00 | 10 | 1011.6 |
| 20260902222106 | 78 | 230 | 6.0 | 22.0 | 0.00 | 0.00 | 0.00 | 10 | 1011.7 |
| 20260902222006 | 78 | 229 | 8.0 | 22.0 | 0.00 | 0.00 | 0.00 | 10 | 1011.7 |
| 20260902221806 | 78 | 229 | 11.0 | 22.0 | 0.00 | 0.00 | 0.00 | 10 | 1011.7 |
| 20260902221705 | 78 | 229 | 14.0 | 22.0 | 0.00 | 0.00 | 0.00 | 10 | 1011.6 |
| 20260902221606 | 78 | 233 | 8.0 | 17.0 | 0.00 | 0.00 | 0.00 | 10 | 1011.6 |
| 20260902221506 | 78 | 238 | 8.0 | 17.0 | 0.00 | 0.00 | 0.00 | 10 | 1011.5 |
| 20260902221406 | 78 | 245 | 8.0 | 17.0 | 0.00 | 0.00 | 0.00 | 10 | 1011.6 |
| 20260902220906 | 79 | 253 | 8.0 | 18.0 | 0.00 | 0.00 | 0.00 | 10 | 1011.6 |
| 20260902220806 | 79 | 251 | 9.0 | 21.0 | 0.00 | 0.00 | 0.00 | 10 | 1011.6 |
| 20260902220706 | 79 | 249 | 8.0 | 21.0 | 0.00 | 0.00 | 0.00 | 10 | 1011.6 |
| 20260902220606 | 79 | 246 | 10.0 | 21.0 | 0.00 | 0.00 | 0.00 | 10 | 1011.7 |
| 20260902220506 | 79 | 237 | 8.0 | 21.0 | 0.00 | 0.00 | 0.00 | 10 | 1011.6 |
| 20260902220406 | 78 | 233 | 8.0 | 21.0 | 0.00 | 0.00 | 0.00 | 10 | 1011.7 |
| 20260902215806 | 77 | 199 | 11.0 | 21.0 | 0.00 | 0.00 | 0.00 | 10 | 1011.6 |
| 20260902215706 | 77 | 187 | 8.0 | 21.0 | 0.00 | 0.00 | 0.00 | 10 | 1011.7 |
| 20260902215606 | 77 | 179 | 10.0 | 22.0 | 0.00 | 0.00 | 0.00 | 10 | 1011.8 |
| 20260902215506 | 77 | 191 | 8.0 | 22.0 | 0.00 | 0.00 | 0.00 | 10 | 1011.8 |
| 20260902215406 | 77 | 200 | 11.0 | 23.0 | 0.00 | 0.00 | 0.00 | 10 | 1011.8 |
| 20260902215306 | 77 | 219 | 11.0 | 23.0 | 0.00 | 0.00 | 0.00 | 10 | 1011.8 |
| 20260902214806 | 77 | 261 | 11.0 | 23.0 | 0.00 | 0.00 | 0.00 | 10 | 1011.8 |
| 20260902214707 | 77 | 260 | 11.0 | 23.0 | 0.00 | 0.00 | 0.00 | 10 | 1011.8 |
| 20260902214606 | 77 | 256 | 13.0 | 23.0 | 0.00 | 0.00 | 0.00 | 10 | 1011.8 |
| 20260902214506 | 77 | 244 | 13.0 | 23.0 | 0.00 | 0.00 | 0.00 | 10 | 1011.8 |
| 20260902214406 | 77 | 223 | 8.0 | 23.0 | 0.00 | 0.00 | 0.00 | 10 | 1011.7 |
| 20260902214306 | 77 | 220 | 12.0 | 23.0 | 0.00 | 0.00 | 0.00 | 10 | 1011.8 |
| 20260902214206 | 77 | 215 | 11.0 | 23.0 | 0.00 | 0.00 | 0.00 | 10 | 1011.8 |
| 20260902214106 | 77 | 213 | 10.0 | 23.0 | 0.00 | 0.00 | 0.00 | 10 | 1011.8 |
| 20260902214006 | 77 | 217 | 14.0 | 23.0 | 0.00 | 0.00 | 0.00 | 10 | 1011.8 |
| 20260902213906 | 77 | 217 | 9.0 | 23.0 | 0.00 | 0.00 | 0.00 | 10 | 1011.9 |
| 20260902213806 | 77 | 217 | 9.0 | 23.0 | 0.00 | 0.00 | 0.00 | 10 | 1011.8 |
| 20260902213706 | 77 | 216 | 15.0 | 23.0 | 0.00 | 0.00 | 0.00 | 10 | 1011.9 |
| 20260902213606 | 78 | 216 | 12.0 | 21.0 | 0.00 | 0.00 | 0.00 | 10 | 1011.8 |
| 20260902213506 | 78 | 214 | 12.0 | 21.0 | 0.00 | 0.00 | 0.00 | 10 | 1011.8 |
| 20260902213406 | 78 | 219 | 10.0 | 21.0 | 0.00 | 0.00 | 0.00 | 10 | 1011.9 |
| 20260902213306 | 78 | 222 | 11.0 | 21.0 | 0.00 | 0.00 | 0.00 | 10 | 1011.9 |
| 20260902213206 | 78 | 225 | 13.0 | 21.0 | 0.00 | 0.00 | 0.00 | 10 | 1011.8 |
| 20260902213106 | 77 | 225 | 9.0 | 18.0 | 0.00 | 0.00 | 0.00 | 10 | 1011.8 |
| 20260902213006 | 77 | 230 | 9.0 | 18.0 | 0.00 | 0.00 | 0.00 | 10 | 1011.8 |
| 20260902212906 | 77 | 230 | 11.0 | 19.0 | 0.00 | 0.00 | 0.00 | 10 | 1011.8 |
| 20260902212806 | 77 | 231 | 4.0 | 19.0 | 0.00 | 0.00 | 0.00 | 10 | 1011.8 |
| 20260902212706 | 77 | 223 | 4.0 | 19.0 | 0.00 | 0.00 | 0.00 | 10 | 1011.8 |
| 20260902212605 | 77 | 222 | 1.0 | 19.0 | 0.00 | 0.00 | 0.00 | 10 | 1011.9 |
| 20260902212506 | 76 | 223 | 4.0 | 19.0 | 0.00 | 0.00 | 0.00 | 10 | 1011.8 |
| 20260902212406 | 77 | 228 | 6.0 | 19.0 | 0.00 | 0.00 | 0.00 | 10 | 1012.0 |
| 20260902212306 | 76 | 228 | 9.0 | 19.0 | 0.00 | 0.00 | 0.00 | 10 | 1011.9 |
| 20260902212205 | 76 | 231 | 8.0 | 19.0 | 0.00 | 0.00 | 0.00 | 10 | 1011.8 |
| 20260902212106 | 76 | 235 | 10.0 | 19.0 | 0.00 | 0.00 | 0.00 | 10 | 1011.8 |
| 20260902212006 | 77 | 227 | 11.0 | 19.0 | 0.00 | 0.00 | 0.00 | 10 | 1011.9 |
| 20260902211906 | 77 | 235 | 8.0 | 17.0 | 0.00 | 0.00 | 0.00 | 10 | 1011.8 |
| 20260902211805 | 77 | 234 | 10.0 | 17.0 | 0.00 | 0.00 | 0.00 | 10 | 1011.9 |
| 20260902211706 | 77 | 241 | 8.0 | 15.0 | 0.00 | 0.00 | 0.00 | 10 | 1011.9 |
| 20260902211606 | 76 | 237 | 9.0 | 19.0 | 0.00 | 0.00 | 0.00 | 10 | 1011.9 |
| 20260902211406 | 76 | 233 | 4.0 | 19.0 | 0.00 | 0.00 | 0.00 | 10 | 1012.0 |
| 20260902211306 | 76 | 231 | 4.0 | 19.0 | 0.00 | 0.00 | 0.00 | 10 | 1011.9 |
| 20260902211206 | 76 | 237 | 4.0 | 19.0 | 0.00 | 0.00 | 0.00 | 10 | 1011.9 |
| 20260902211106 | 76 | 241 | 5.0 | 19.0 | 0.00 | 0.00 | 0.00 | 10 | 1012.0 |
| 20260902211006 | 76 | 252 | 8.0 | 19.0 | 0.00 | 0.00 | 0.00 | 10 | 1012.0 |
| 20260902210905 | 76 | 253 | 4.0 | 19.0 | 0.00 | 0.00 | 0.00 | 10 | 1012.0 |
| 20260902210806 | 76 | 242 | 10.0 | 19.0 | 0.00 | 0.00 | 0.00 | 10 | 1011.9 |
| 20260902210706 | 76 | 246 | 11.0 | 19.0 | 0.00 | 0.00 | 0.00 | 10 | 1011.8 |
| 20260902210606 | 76 | 252 | 13.0 | 19.0 | 0.00 | 0.00 | 0.00 | 10 | 1012.0 |
| 20260902210405 | 77 | 251 | 8.0 | 17.0 | 0.00 | 0.00 | 0.00 | 10 | 1011.9 |
| 20260902210306 | 77 | 268 | 8.0 | 17.0 | 0.00 | 0.00 | 0.00 | 10 | 1012.0 |
| 20260902210206 | 76 | 349 | 10.0 | 17.0 | 0.00 | 0.00 | 0.00 | 10 | 1011.8 |
| 20260902210106 | 76 | 128 | 9.0 | 17.0 | 0.00 | 0.00 | 0.00 | 10 | 1011.8 |
| 20260902210005 | 76 | 158 | 4.0 | 15.0 | 0.00 | 0.00 | 0.00 | 10 | 1011.8 |
| 20260902205906 | 76 | 162 | 5.0 | 15.0 | 0.00 | 0.00 | 0.00 | 10 | 1011.8 |
| 20260902205806 | 76 | 181 | 8.0 | 15.0 | 0.00 | 0.00 | 0.00 | 10 | 1011.8 |
| 20260902205706 | 75 | 182 | 4.0 | 15.0 | 0.00 | 0.00 | 0.00 | 10 | 1011.9 |
| 20260902205606 | 75 | 190 | 5.0 | 15.0 | 0.00 | 0.00 | 0.00 | 10 | 1012.0 |
| 20260902205506 | 75 | 198 | 8.0 | 17.0 | 0.00 | 0.00 | 0.00 | 10 | 1011.9 |
| 20260902205406 | 75 | 221 | 8.0 | 17.0 | 0.00 | 0.00 | 0.00 | 10 | 1011.9 |
| 20260902205306 | 75 | 225 | 4.0 | 17.0 | 0.00 | 0.00 | 0.00 | 10 | 1011.9 |
| 20260902205205 | 75 | 229 | 8.0 | 17.0 | 0.00 | 0.00 | 0.00 | 10 | 1011.8 |
| 20260902205106 | 75 | 238 | 10.0 | 17.0 | 0.00 | 0.00 | 0.00 | 10 | 1011.9 |
| 20260902205006 | 75 | 241 | 10.0 | 17.0 | 0.00 | 0.00 | 0.00 | 10 | 1012.0 |
| 20260902204906 | 75 | 250 | 8.0 | 17.0 | 0.00 | 0.00 | 0.00 | 10 | 1012.0 |
| 20260902204806 | 75 | 254 | 6.0 | 17.0 | 0.00 | 0.00 | 0.00 | 10 | 1011.9 |
| 20260902204706 | 75 | 247 | 6.0 | 17.0 | 0.00 | 0.00 | 0.00 | 10 | 1012.0 |
| 20260902204606 | 75 | 249 | 5.0 | 17.0 | 0.00 | 0.00 | 0.00 | 10 | 1012.1 |
| 20260902204506 | 75 | 253 | 11.0 | 17.0 | 0.00 | 0.00 | 0.00 | 10 | 1012.0 |
| 20260902204406 | 75 | 259 | 7.0 | 17.0 | 0.00 | 0.00 | 0.00 | 10 | 1012.0 |
| 20260902204305 | 75 | 261 | 8.0 | 17.0 | 0.00 | 0.00 | 0.00 | 10 | 1012.0 |
| 20260902204206 | 75 | 263 | 8.0 | 17.0 | 0.00 | 0.00 | 0.00 | 10 | 1011.9 |
| 20260902204106 | 75 | 256 | 12.0 | 17.0 | 0.00 | 0.00 | 0.00 | 10 | 1012.1 |
| 20260902204006 | 75 | 261 | 3.0 | 15.0 | 0.00 | 0.00 | 0.00 | 10 | 1012.0 |
| 20260902203906 | 75 | 263 | 4.0 | 17.0 | 0.00 | 0.00 | 0.00 | 10 | 1012.0 |
| 20260902203807 | 75 | 261 | 7.0 | 17.0 | 0.00 | 0.00 | 0.00 | 10 | 1012.0 |
| 20260902203706 | 76 | 269 | 10.0 | 17.0 | 0.00 | 0.00 | 0.00 | 10 | 1012.0 |
| 20260902203606 | 76 | 262 | 5.0 | 17.0 | 0.00 | 0.00 | 0.00 | 10 | 1012.1 |
| 20260902203505 | 76 | 258 | 6.0 | 17.0 | 0.00 | 0.00 | 0.00 | 10 | 1012.1 |
| 20260902203406 | 76 | 244 | 3.0 | 17.0 | 0.00 | 0.00 | 0.00 | 10 | 1012.1 |
| 20260902203106 | 76 | 252 | 5.0 | 17.0 | 0.00 | 0.00 | 0.00 | 10 | 1012.1 |
| 20260902203005 | 76 | 245 | 4.0 | 17.0 | 0.00 | 0.00 | 0.00 | 10 | 1012.2 |
| 20260902202906 | 76 | 222 | 11.0 | 17.0 | 0.00 | 0.00 | 0.00 | 10 | 1012.2 |
| 20260902202806 | 76 | 224 | 8.0 | 17.0 | 0.00 | 0.00 | 0.00 | 10 | 1012.2 |
| 20260902202706 | 76 | 202 | 4.0 | 17.0 | 0.00 | 0.00 | 0.00 | 10 | 1012.3 |
| 20260902202606 | 76 | 206 | 6.0 | 17.0 | 0.00 | 0.00 | 0.00 | 10 | 1012.1 |
| 20260902202506 | 76 | 217 | 4.0 | 15.0 | 0.00 | 0.00 | 0.00 | 10 | 1012.2 |
| 20260902202406 | 75 | 227 | 4.0 | 17.0 | 0.00 | 0.00 | 0.00 | 10 | 1012.2 |
| 20260902202306 | 75 | 238 | 8.0 | 17.0 | 0.00 | 0.00 | 0.00 | 10 | 1012.2 |
| 20260902202206 | 75 | 236 | 8.0 | 17.0 | 0.00 | 0.00 | 0.00 | 10 | 1012.2 |
| 20260902202105 | 75 | 231 | 5.0 | 17.0 | 0.00 | 0.00 | 0.00 | 10 | 1012.3 |
| 20260902202006 | 75 | 234 | 4.0 | 17.0 | 0.00 | 0.00 | 0.00 | 10 | 1012.4 |
| 20260902201806 | 75 | 252 | 4.0 | 17.0 | 0.00 | 0.00 | 0.00 | 10 | 1012.3 |
| 20260902201705 | 75 | 259 | 5.0 | 17.0 | 0.00 | 0.00 | 0.00 | 10 | 1012.3 |
| 20260902201606 | 76 | 253 | 11.0 | 17.0 | 0.00 | 0.00 | 0.00 | 10 | 1012.2 |
| 20260902201506 | 76 | 250 | 12.0 | 17.0 | 0.00 | 0.00 | 0.00 | 10 | 1012.3 |
| 20260902201406 | 77 | 234 | 8.0 | 17.0 | 0.00 | 0.00 | 0.00 | 10 | 1012.2 |
| 20260902201205 | 76 | 172 | 4.0 | 17.0 | 0.00 | 0.00 | 0.00 | 10 | 1012.3 |
| 20260902201106 | 76 | 165 | 7.0 | 17.0 | 0.00 | 0.00 | 0.00 | 10 | 1012.3 |
| 20260902201006 | 76 | 146 | 4.0 | 10.0 | 0.00 | 0.00 | 0.00 | 10 | 1012.3 |
| 20260902200906 | 76 | 140 | 4.0 | 14.0 | 0.00 | 0.00 | 0.00 | 10 | 1012.2 |
| 20260902200806 | 76 | 131 | 4.0 | 14.0 | 0.00 | 0.00 | 0.00 | 10 | 1012.3 |
| 20260902200705 | 75 | 130 | 6.0 | 14.0 | 0.00 | 0.00 | 0.00 | 10 | 1012.2 |
| 20260902200606 | 75 | 136 | 6.0 | 14.0 | 0.00 | 0.00 | 0.00 | 10 | 1012.3 |
| 20260902200506 | 75 | 153 | 6.0 | 14.0 | 0.00 | 0.00 | 0.00 | 10 | 1012.2 |
| 20260902200406 | 75 | 308 | 6.0 | 14.0 | 0.00 | 0.00 | 0.00 | 10 | 1012.3 |
| 20260902200206 | 75 | 317 | 6.0 | 15.0 | 0.00 | 0.00 | 0.00 | 10 | 1012.3 |
| 20260902200106 | 75 | 305 | 6.0 | 17.0 | 0.00 | 0.00 | 0.00 | 10 | 1012.3 |
| 20260902200006 | 75 | 306 | 9.0 | 18.0 | 0.00 | 0.00 | 0.00 | 10 | 1012.3 |
| 20260902195906 | 74 | 309 | 5.0 | 18.0 | 0.00 | 0.00 | 0.00 | 10 | 1012.4 |
| 20260902195806 | 74 | 297 | 3.0 | 18.0 | 0.00 | 0.00 | 0.00 | 10 | 1012.3 |
| 20260902195707 | 74 | 294 | 3.0 | 18.0 | 0.00 | 0.00 | 0.00 | 10 | 1012.3 |
| 20260902195606 | 74 | 286 | 5.0 | 18.0 | 0.00 | 0.00 | 0.00 | 10 | 1012.4 |
| 20260902195506 | 74 | 287 | 4.0 | 18.0 | 0.00 | 0.00 | 0.00 | 10 | 1012.4 |
| 20260902195406 | 74 | 273 | 8.0 | 18.0 | 0.00 | 0.00 | 0.00 | 10 | 1012.4 |
| 20260902195206 | 74 | 258 | 11.0 | 18.0 | 0.00 | 0.00 | 0.00 | 10 | 1012.4 |
| 20260902195105 | 74 | 265 | 10.0 | 18.0 | 0.00 | 0.00 | 0.00 | 10 | 1012.4 |
| 20260902195006 | 74 | 263 | 10.0 | 18.0 | 0.00 | 0.00 | 0.00 | 10 | 1012.5 |
| 20260902194906 | 74 | 255 | 12.0 | 18.0 | 0.00 | 0.00 | 0.00 | 10 | 1012.4 |
| 20260902194806 | 74 | 257 | 9.0 | 18.0 | 0.00 | 0.00 | 0.00 | 10 | 1012.5 |
| 20260902194406 | 74 | 254 | 9.0 | 17.0 | 0.00 | 0.00 | 0.00 | 10 | 1012.6 |
| 20260902194306 | 74 | 240 | 8.0 | 17.0 | 0.00 | 0.00 | 0.00 | 10 | 1012.6 |
| 20260902194206 | 74 | 234 | 6.0 | 17.0 | 0.00 | 0.00 | 0.00 | 10 | 1012.4 |
| 20260902194106 | 74 | 238 | 4.0 | 17.0 | 0.00 | 0.00 | 0.00 | 10 | 1012.5 |
| 20260902194006 | 74 | 243 | 7.0 | 17.0 | 0.00 | 0.00 | 0.00 | 10 | 1012.5 |
| 20260902193906 | 74 | 249 | 7.0 | 17.0 | 0.00 | 0.00 | 0.00 | 10 | 1012.6 |
| 20260902193806 | 74 | 247 | 8.0 | 17.0 | 0.00 | 0.00 | 0.00 | 10 | 1012.6 |
| 20260902193705 | 74 | 245 | 11.0 | 17.0 | 0.00 | 0.00 | 0.00 | 10 | 1012.6 |
| 20260902193606 | 74 | 250 | 4.0 | 16.0 | 0.00 | 0.00 | 0.00 | 10 | 1012.5 |
| 20260902193506 | 74 | 251 | 7.0 | 16.0 | 0.00 | 0.00 | 0.00 | 10 | 1012.6 |
| 20260902193406 | 74 | 261 | 10.0 | 16.0 | 0.00 | 0.00 | 0.00 | 10 | 1012.7 |
| 20260902193306 | 74 | 269 | 9.0 | 16.0 | 0.00 | 0.00 | 0.00 | 10 | 1012.6 |
| 20260902193206 | 74 | 288 | 11.0 | 16.0 | 0.00 | 0.00 | 0.00 | 10 | 1012.6 |
| 20260902193106 | 74 | 282 | 4.0 | 16.0 | 0.00 | 0.00 | 0.00 | 10 | 1012.6 |
| 20260902193006 | 73 | 282 | 6.0 | 16.0 | 0.00 | 0.00 | 0.00 | 10 | 1012.6 |
| 20260902192906 | 74 | 277 | 9.0 | 16.0 | 0.00 | 0.00 | 0.00 | 10 | 1012.6 |
| 20260902192806 | 73 | 294 | 8.0 | 16.0 | 0.00 | 0.00 | 0.00 | 10 | 1012.5 |
| 20260902192606 | 73 | 311 | 4.0 | 10.0 | 0.00 | 0.00 | 0.00 | 10 | 1012.5 |
| 20260902192506 | 72 | 315 | 3.0 | 5.0 | 0.00 | 0.00 | 0.00 | 13 | 1012.6 |
| 20260902192406 | 72 | 314 | 3.0 | 7.0 | 0.00 | 0.00 | 0.00 | 13 | 1012.6 |
| 20260902192307 | 72 | 314 | 3.0 | 8.0 | 0.00 | 0.00 | 0.00 | 13 | 1012.6 |
| 20260902192206 | 72 | 284 | 3.0 | 17.0 | 0.00 | 0.00 | 0.00 | 13 | 1012.6 |
| 20260902191506 | 72 | 234 | 3.0 | 17.0 | 0.00 | 0.00 | 0.00 | 13 | 1012.8 |
| 20260902191405 | 72 | 239 | 4.0 | 17.0 | 0.00 | 0.00 | 0.00 | 12 | 1012.7 |
| 20260902191306 | 72 | 254 | 5.0 | 17.0 | 0.00 | 0.00 | 0.00 | 12 | 1012.8 |
| 20260902191206 | 72 | 265 | 10.0 | 17.0 | 0.00 | 0.00 | 0.00 | 12 | 1012.8 |
| 20260902191105 | 72 | 265 | 8.0 | 17.0 | 0.00 | 0.00 | 0.00 | 12 | 1012.8 |
| 20260902191006 | 72 | 263 | 4.0 | 17.0 | 0.00 | 0.00 | 0.00 | 12 | 1012.8 |
| 20260902190906 | 72 | 273 | 11.0 | 17.0 | 0.00 | 0.00 | 0.00 | 11 | 1012.8 |
| 20260902190806 | 72 | 280 | 9.0 | 17.0 | 0.00 | 0.00 | 0.00 | 11 | 1012.9 |
| 20260902190706 | 73 | 277 | 11.0 | 17.0 | 0.00 | 0.00 | 0.00 | 11 | 1013.0 |
| 20260902190606 | 73 | 259 | 6.0 | 17.0 | 0.00 | 0.00 | 0.00 | 11 | 1013.1 |
| 20260902190507 | 73 | 265 | 2.0 | 17.0 | 0.00 | 0.00 | 0.00 | 12 | 1013.0 |
| 20260902190406 | 73 | 267 | 10.0 | 17.0 | 0.00 | 0.00 | 0.00 | 11 | 1012.9 |
| 20260902190306 | 72 | 260 | 4.0 | 17.0 | 0.00 | 0.00 | 0.00 | 11 | 1013.0 |
| 20260902190205 | 72 | 252 | 6.0 | 17.0 | 0.00 | 0.00 | 0.00 | 11 | 1013.1 |
| 20260902190106 | 72 | 252 | 5.0 | 17.0 | 0.00 | 0.00 | 0.00 | 11 | 1013.0 |
| 20260902190006 | 72 | 245 | 8.0 | 17.0 | 0.00 | 0.00 | 0.00 | 11 | 1013.0 |
| 20260902185906 | 72 | 243 | 4.0 | 17.0 | 0.00 | 0.00 | 0.00 | 13 | 1013.1 |
| 20260902185805 | 72 | 244 | 2.0 | 17.0 | 0.00 | 0.00 | 0.00 | 13 | 1013.1 |
| 20260902185706 | 72 | 248 | 7.0 | 17.0 | 0.00 | 0.00 | 0.00 | 13 | 1013.1 |
| 20260902185606 | 71 | 252 | 4.0 | 17.0 | 0.00 | 0.00 | 0.00 | 13 | 1013.1 |
| 20260902185506 | 71 | 252 | 7.0 | 17.0 | 0.00 | 0.00 | 0.00 | 14 | 1013.1 |
| 20260902185405 | 71 | 254 | 8.0 | 17.0 | 0.00 | 0.00 | 0.00 | 14 | 1013.0 |
| 20260902185208 | 70 | 262 | 8.0 | 17.0 | 0.00 | 0.00 | 0.00 | 14 | 1013.1 |
| 20260902185106 | 70 | 268 | 9.0 | 17.0 | 0.00 | 0.00 | 0.00 | 15 | 1013.0 |
| 20260902185005 | 70 | 267 | 8.0 | 17.0 | 0.00 | 0.00 | 0.00 | 15 | 1012.9 |
| 20260902184906 | 70 | 270 | 7.0 | 17.0 | 0.00 | 0.00 | 0.00 | 15 | 1012.9 |
| 20260902184806 | 69 | 266 | 4.0 | 17.0 | 0.00 | 0.00 | 0.00 | 14 | 1013.1 |
| 20260902184706 | 69 | 261 | 6.0 | 17.0 | 0.00 | 0.00 | 0.00 | 14 | 1013.1 |
| 20260902184605 | 69 | 256 | 11.0 | 17.0 | 0.00 | 0.00 | 0.00 | 14 | 1013.1 |
| 20260902184506 | 69 | 253 | 9.0 | 17.0 | 0.00 | 0.00 | 0.00 | 14 | 1013.2 |
| 20260902184406 | 69 | 242 | 5.0 | 16.0 | 0.00 | 0.00 | 0.00 | 15 | 1013.2 |
| 20260902184306 | 69 | 236 | 8.0 | 16.0 | 0.00 | 0.00 | 0.00 | 15 | 1013.2 |
| 20260902184206 | 69 | 233 | 6.0 | 16.0 | 0.00 | 0.00 | 0.00 | 15 | 1013.1 |
| 20260902183205 | 69 | 237 | 8.0 | 15.0 | 0.00 | 0.00 | 0.00 | 16 | 1013.4 |
| 20260902183106 | 69 | 248 | 7.0 | 15.0 | 0.00 | 0.00 | 0.00 | 16 | 1013.4 |
| 20260902183006 | 69 | 247 | 7.0 | 15.0 | 0.00 | 0.00 | 0.00 | 16 | 1013.3 |
| 20260902182905 | 69 | 249 | 7.0 | 15.0 | 0.00 | 0.00 | 0.00 | 16 | 1013.3 |
| 20260902182805 | 69 | 254 | 2.0 | 19.0 | 0.00 | 0.00 | 0.00 | 16 | 1013.4 |
| 20260902182706 | 69 | 250 | 5.0 | 19.0 | 0.00 | 0.00 | 0.00 | 16 | 1013.4 |
| 20260902182606 | 68 | 241 | 4.0 | 19.0 | 0.00 | 0.00 | 0.00 | 17 | 1013.5 |
| 20260902182406 | 68 | 235 | 6.0 | 19.0 | 0.00 | 0.00 | 0.00 | 17 | 1013.4 |
| 20260902182306 | 68 | 234 | 10.0 | 19.0 | 0.00 | 0.00 | 0.00 | 17 | 1013.3 |
| 20260902182206 | 68 | 232 | 9.0 | 19.0 | 0.00 | 0.00 | 0.00 | 17 | 1013.4 |
| 20260902182105 | 68 | 227 | 9.0 | 19.0 | 0.00 | 0.00 | 0.00 | 17 | 1013.4 |
| 20260902182006 | 67 | 232 | 7.0 | 19.0 | 0.00 | 0.00 | 0.00 | 17 | 1013.4 |
| 20260902181806 | 67 | 229 | 11.0 | 19.0 | 0.00 | 0.00 | 0.00 | 18 | 1013.4 |
| 20260902181705 | 67 | 230 | 11.0 | 19.0 | 0.00 | 0.00 | 0.00 | 18 | 1013.3 |
| 20260902181606 | 67 | 234 | 11.0 | 19.0 | 0.00 | 0.00 | 0.00 | 18 | 1013.4 |
| 20260902181506 | 67 | 235 | 11.0 | 19.0 | 0.00 | 0.00 | 0.00 | 18 | 1013.5 |
| 20260902181406 | 67 | 240 | 11.0 | 19.0 | 0.00 | 0.00 | 0.00 | 18 | 1013.5 |
| 20260902181305 | 67 | 240 | 8.0 | 19.0 | 0.00 | 0.00 | 0.00 | 18 | 1013.4 |
| 20260902181206 | 66 | 244 | 8.0 | 19.0 | 0.00 | 0.00 | 0.00 | 18 | 1013.5 |
| 20260902181106 | 66 | 245 | 11.0 | 19.0 | 0.00 | 0.00 | 0.00 | 18 | 1013.5 |
| 20260902181005 | 66 | 239 | 10.0 | 19.0 | 0.00 | 0.00 | 0.00 | 18 | 1013.4 |
| 20260902180505 | 66 | 229 | 9.0 | 17.0 | 0.00 | 0.00 | 0.00 | 19 | 1013.4 |
| 20260902180405 | 66 | 225 | 9.0 | 17.0 | 0.00 | 0.00 | 0.00 | 19 | 1013.4 |
| 20260902180306 | 66 | 225 | 4.0 | 17.0 | 0.00 | 0.00 | 0.00 | 19 | 1013.4 |
| 20260902180206 | 66 | 218 | 8.0 | 17.0 | 0.00 | 0.00 | 0.00 | 19 | 1013.5 |
| 20260902180105 | 66 | 213 | 8.0 | 17.0 | 0.00 | 0.00 | 0.00 | 19 | 1013.6 |
| 20260902180007 | 65 | 213 | 8.0 | 17.0 | 0.00 | 0.00 | 0.00 | 19 | 1013.6 |
| 20260902175906 | 65 | 213 | 10.0 | 17.0 | 0.00 | 0.00 | 0.00 | 19 | 1013.6 |
| 20260902175806 | 65 | 217 | 11.0 | 17.0 | 0.00 | 0.00 | 0.00 | 19 | 1013.6 |
| 20260902175706 | 65 | 216 | 11.0 | 15.0 | 0.00 | 0.00 | 0.00 | 19 | 1013.5 |
| 20260902175606 | 65 | 215 | 5.0 | 15.0 | 0.00 | 0.00 | 0.00 | 19 | 1013.6 |
| 20260902175506 | 65 | 216 | 7.0 | 15.0 | 0.00 | 0.00 | 0.00 | 19 | 1013.6 |
| 20260902175406 | 65 | 216 | 6.0 | 15.0 | 0.00 | 0.00 | 0.00 | 18 | 1013.5 |
| 20260902175307 | 65 | 216 | 8.0 | 15.0 | 0.00 | 0.00 | 0.00 | 18 | 1013.7 |
| 20260902175206 | 65 | 220 | 8.0 | 15.0 | 0.00 | 0.00 | 0.00 | 18 | 1013.5 |
| 20260902175106 | 65 | 224 | 8.0 | 15.0 | 0.00 | 0.00 | 0.00 | 19 | 1013.6 |
| 20260902175006 | 65 | 217 | 8.0 | 15.0 | 0.00 | 0.00 | 0.00 | 18 | 1013.5 |
| 20260902174906 | 65 | 223 | 8.0 | 15.0 | 0.00 | 0.00 | 0.00 | 18 | 1013.6 |
| 20260902174806 | 65 | 228 | 8.0 | 14.0 | 0.00 | 0.00 | 0.00 | 18 | 1013.6 |
| 20260902174706 | 65 | 228 | 8.0 | 14.0 | 0.00 | 0.00 | 0.00 | 18 | 1013.7 |
| 20260902174605 | 65 | 241 | 8.0 | 16.0 | 0.00 | 0.00 | 0.00 | 18 | 1013.6 |
| 20260902174505 | 65 | 244 | 5.0 | 16.0 | 0.00 | 0.00 | 0.00 | 18 | 1013.6 |
| 20260902174406 | 65 | 237 | 6.0 | 16.0 | 0.00 | 0.00 | 0.00 | 18 | 1013.6 |
| 20260902174306 | 65 | 233 | 5.0 | 16.0 | 0.00 | 0.00 | 0.00 | 18 | 1013.6 |
| 20260902174105 | 65 | 235 | 4.0 | 16.0 | 0.00 | 0.00 | 0.00 | 18 | 1013.6 |
| 20260902174006 | 65 | 239 | 6.0 | 16.0 | 0.00 | 0.00 | 0.00 | 19 | 1013.6 |
| 20260902173906 | 65 | 234 | 8.0 | 16.0 | 0.00 | 0.00 | 0.00 | 19 | 1013.5 |
| 20260902173806 | 65 | 231 | 11.0 | 16.0 | 0.00 | 0.00 | 0.00 | 19 | 1013.6 |
| 20260902173706 | 64 | 231 | 9.0 | 16.0 | 0.00 | 0.00 | 0.00 | 19 | 1013.6 |
| 20260902173605 | 64 | 226 | 11.0 | 16.0 | 0.00 | 0.00 | 0.00 | 19 | 1013.6 |
| 20260902173505 | 64 | 223 | 8.0 | 16.0 | 0.00 | 0.00 | 0.00 | 19 | 1013.6 |
| 20260902173406 | 64 | 226 | 9.0 | 16.0 | 0.00 | 0.00 | 0.00 | 19 | 1013.6 |
| 20260902173306 | 64 | 228 | 11.0 | 16.0 | 0.00 | 0.00 | 0.00 | 19 | 1013.5 |
| 20260902173205 | 64 | 228 | 9.0 | 17.0 | 0.00 | 0.00 | 0.00 | 19 | 1013.7 |
| 20260902173106 | 64 | 226 | 9.0 | 17.0 | 0.00 | 0.00 | 0.00 | 19 | 1013.6 |
| 20260902173006 | 64 | 223 | 11.0 | 17.0 | 0.00 | 0.00 | 0.00 | 19 | 1013.6 |
| 20260902172905 | 64 | 223 | 11.0 | 17.0 | 0.00 | 0.00 | 0.00 | 19 | 1013.6 |
| 20260902172805 | 64 | 222 | 7.0 | 17.0 | 0.00 | 0.00 | 0.00 | 19 | 1013.6 |
| 20260902172706 | 64 | 220 | 9.0 | 17.0 | 0.00 | 0.00 | 0.00 | 19 | 1013.6 |
| 20260902172606 | 64 | 225 | 6.0 | 17.0 | 0.00 | 0.00 | 0.00 | 19 | 1013.6 |
| 20260902172506 | 64 | 225 | 8.0 | 17.0 | 0.00 | 0.00 | 0.00 | 19 | 1013.7 |
| 20260902172406 | 64 | 225 | 9.0 | 17.0 | 0.00 | 0.00 | 0.00 | 19 | 1013.6 |
| 20260902172308 | 64 | 222 | 11.0 | 17.0 | 0.00 | 0.00 | 0.00 | 19 | 1013.6 |
| 20260902172206 | 64 | 218 | 8.0 | 14.0 | 0.00 | 0.00 | 0.00 | 19 | 1013.6 |
| 20260902172105 | 64 | 221 | 8.0 | 14.0 | 0.00 | 0.00 | 0.00 | 20 | 1013.6 |
| 20260902172006 | 64 | 225 | 9.0 | 15.0 | 0.00 | 0.00 | 0.00 | 20 | 1013.6 |
| 20260902171906 | 64 | 227 | 6.0 | 15.0 | 0.00 | 0.00 | 0.00 | 20 | 1013.6 |
| 20260902171806 | 64 | 232 | 7.0 | 15.0 | 0.00 | 0.00 | 0.00 | 20 | 1013.6 |
| 20260902171705 | 64 | 231 | 8.0 | 15.0 | 0.00 | 0.00 | 0.00 | 20 | 1013.7 |
| 20260902171605 | 64 | 224 | 4.0 | 15.0 | 0.00 | 0.00 | 0.00 | 21 | 1013.7 |
| 20260902171505 | 64 | 224 | 4.0 | 15.0 | 0.00 | 0.00 | 0.00 | 21 | 1013.6 |
| 20260902171406 | 64 | 224 | 4.0 | 15.0 | 0.00 | 0.00 | 0.00 | 21 | 1013.6 |
| 20260902171306 | 64 | 226 | 5.0 | 15.0 | 0.00 | 0.00 | 0.00 | 20 | 1013.6 |
| 20260902171206 | 64 | 231 | 7.0 | 15.0 | 0.00 | 0.00 | 0.00 | 20 | 1013.6 |
| 20260902171105 | 64 | 234 | 5.0 | 15.0 | 0.00 | 0.00 | 0.00 | 20 | 1013.6 |
| 20260902171005 | 64 | 236 | 10.0 | 15.0 | 0.00 | 0.00 | 0.00 | 20 | 1013.6 |
| 20260902170906 | 64 | 238 | 8.0 | 13.0 | 0.00 | 0.00 | 0.00 | 20 | 1013.6 |
| 20260902170405 | 63 | 250 | 8.0 | 13.0 | 0.00 | 0.00 | 0.00 | 21 | 1013.4 |
| 20260902170305 | 63 | 251 | 7.0 | 13.0 | 0.00 | 0.00 | 0.00 | 21 | 1013.6 |
| 20260902170206 | 63 | 248 | 4.0 | 13.0 | 0.00 | 0.00 | 0.00 | 21 | 1013.5 |
| 20260902170106 | 63 | 242 | 8.0 | 13.0 | 0.00 | 0.00 | 0.00 | 21 | 1013.4 |
| 20260902170006 | 63 | 237 | 7.0 | 13.0 | 0.00 | 0.00 | 0.00 | 21 | 1013.4 |
| 20260902165905 | 63 | 229 | 9.0 | 12.0 | 0.00 | 0.00 | 0.00 | 21 | 1013.3 |
| 20260902165806 | 63 | 227 | 8.0 | 12.0 | 0.00 | 0.00 | 0.00 | 21 | 1013.3 |